     2.10           OBSERVATION DATA    G (GPS)             RINEX VERSION / TYPE
teqc 2006Apr13 CORS-ADM Account 20060627 23:04:02UTC        PGM / RUN BY / DATE
Solaris 5.9|UltraSparc IIi|cc -xarch=v9 SC5.5|=+-|*Sparc    COMMENT
teqc 2006Apr13 CORS/NGS/NOAA 20060627 23:04:00UTC           COMMENT
BIT 2 OF LLI FLAGS DATA COLLECTED UNDER A/S CONDITION       COMMENT
cnmr                                                        MARKER NAME
50512M001                                                   MARKER NUMBER
Peter Paul Camacho Commonwealth of the Northern Mariana Isl OBSERVER / AGENCY
0220233361 TRIMBLE 4700 7.29                                REC # / TYPE / VERS
0220238086 TRM33429.20+GP UNAV                              ANT # / TYPE
 -5087756.9960  3465027.2461  1664652.3620                  APPROX POSITION XYZ
        0.0000        0.0000        0.0000                  ANTENNA: DELTA H/E/N
     1     1                                                WAVELENGTH FACT L1/2
     7    C1    L1    L2    P1    P2    D1    D2            # / TYPES OF OBSERV
    30.0000                                                 INTERVAL
SNR is mapped to RINEX snr flag value [0-9]                 COMMENT
L1 & L2: min(max(int(snr_dBHz/6), 0), 9)                    COMMENT
Forced Modulo Decimation to 30 seconds                      COMMENT
  2006     6    27    22     0    0.0000000     GPS         TIME OF FIRST OBS
                                                            END OF HEADER
 06  6 27 22  0  0.0000000  0  8G 2G27G 4G10G24G17G 8G13
  22712965.4884  -11730892.53947  -9136033.35246                  22712958.8084
      2866.8554
  22928105.7804   -9723219.55647  -7572071.59545                  22928103.7204
      1125.0594
  21320094.1984  -20879094.89747 -16263493.05646                  21320091.1154
      1430.9284
  23244815.4784   -5983356.56847  -5990628.43045                  23244812.8534
      1222.8474
  21769654.1844  -15941458.46547 -13745987.05246                  21769652.3004
       400.4444
  21293680.3504  -23039881.45848 -17939188.29847                  21293676.6424
     -2180.8354
  23673486.1174   -8228214.97147  -6402889.27245                  23673483.1354
      2379.8584
  22387501.6164  -17403393.77547 -13554997.36345                  22387498.7534
     -2599.2484
 06  6 27 22  0 30.0000000  0  8G 2G27G 4G10G24G17G 8G13
  22696599.4874  -11816894.53047  -9203047.86346                  22696594.6084
      2866.9144
  22921710.3584   -9756828.37047  -7598260.27045                  22921707.9044
      1115.9084
  21311942.1424  -20921936.20347 -16296875.91346                  21311939.2574
      1425.5034
  23237852.0864   -6019950.26647  -6019143.01644                  23237849.7614
      1217.2704
  21767391.0854  -15953352.41448 -13755255.08846                  21767388.6824
       392.8424
  21306168.0854  -22974258.22148 -17888053.32647                  21306163.9644
     -2193.7214
  23659899.1114   -8299611.86047  -6458523.22245                  23659896.8954
      2380.2394
  22402371.8094  -17325253.44747 -13494108.80845                  22402368.4924
     -2609.7364
 06  6 27 22  1  0.0000000  0  8G 2G27G 4G10G24G17G 8G13
  22680233.7354  -11902897.14247  -9270062.86346                  22680227.8484
      2866.9824
  22915366.7454   -9790166.46147  -7624237.99945                  22915363.9294
      1106.9144
  21303820.3744  -20964615.87147 -16330132.81146                  21303817.4384
      1420.1174
  23230920.4984   -6056375.09147  -6047526.05645                  23230918.2464
      1211.6364
  21765170.0754  -15965022.52248 -13764348.69646                  21765168.1714
       385.4304
  21318728.8054  -22908250.81648 -17836619.01447                  21318725.4434
     -2206.4604
  23646310.0564   -8371020.02347  -6514165.91645                  23646308.3204
      2380.6404
  22417301.3864  -17246799.78647 -13432976.12845                  22417297.7224
     -2620.1224
 06  6 27 22  1 30.0000000  0  8G 2G27G 4G10G24G17G 8G13
  22663868.5694  -11988897.84847  -9337076.39146                  22663862.6364
      2866.6164
  22909074.7474   -9823230.92448  -7650002.51745                  22909071.7064
      1097.4854
  21295729.8694  -21007131.08247 -16363261.56146                  21295726.4474
      1414.3904
  23224021.1244   -6092631.61347  -6075777.87844                  23224018.8274
      1205.6984
  21762992.4674  -15976466.08147 -13773265.78246                  21762990.4524
       377.6274
  21331362.4514  -22841861.21348 -17784886.88247                  21331359.4204
     -2219.3604
  23632720.9474   -8442436.20347  -6569814.86245                  23632718.0824
      2380.5914
  22432289.6564  -17168034.93747 -13371600.93446                  22432286.2754
     -2630.7324
 06  6 27 22  2  0.0000000  0  8G 2G27G 4G10G24G17G 8G13
  22647502.8024  -12074899.52448  -9404090.67746                  22647497.7114
      2866.7194
  22902834.8094   -9856024.50348  -7675555.96545                  22902831.2624
      1088.6434
  21287670.3594  -21049485.07747 -16396264.70646                  21287666.9914
      1409.1014
  23217152.7894   -6128726.16147  -6103903.54344                  23217149.7064
      1200.5224
  21760857.6694  -15987686.52648 -13782009.00946                  21760854.9424
       370.3474
  21344067.2164  -22775097.15848 -17732862.96547                  21344063.1854
     -2231.6554
  23619128.2524   -8513862.56647  -6625471.79345                  23619125.5414
      2381.0604
  22447335.9004  -17088966.73247 -13309989.39046                  22447332.9604
     -2640.5184
 06  6 27 22  2 30.0000000  0  8G 2G27G 4G10G24G17G 8G13
  22631136.2644  -12160905.37448  -9471108.20846                  22631131.3884
      2866.9434
  22896644.5144   -9888550.06547  -7700900.53845                  22896641.8914
      1079.6924
  21279640.3104  -21091680.84447 -16429144.54046                  21279637.6014
      1403.8434
  23210313.5854   -6164664.94047  -6131907.82644                  23210310.9864
      1195.3954
  21758764.4804  -15998687.04247 -13790580.88846                  21758762.3034
       363.0574
  21356841.9474  -22707965.95948 -17680552.94747                  21356838.0324
     -2243.7944
  23605534.0484   -8585301.58247  -6681138.53645                  23605531.4684
      2381.6314
  22462437.9344  -17009603.25947 -13248147.73646                  22462434.7134
     -2650.2694
 06  6 27 22  3  0.0000000  0  8G 2G27G 4G10G24G17G 8G13
  22614772.4134  -12246895.98148  -9538113.88646                  22614768.3654
      2866.1134
  22890510.4844   -9920787.63848  -7726020.73845                  22890507.6094
      1069.7314
  21271644.8584  -21133698.75847 -16461885.79946                  21271642.1924
      1397.5834
  23203507.4294   -6200431.57547  -6159777.93245                  23203505.9744
      1189.3314
  21756716.4814  -16009448.28247 -13798966.29746                  21756714.3904
       354.6584
  21369689.0244  -22640452.86548 -17627945.38447                  21369685.9284
     -2256.7434
  23591941.3624   -8656732.82747  -6736799.25645                  23591938.7124
      2380.7714
  22477599.1644  -16929929.52647 -13186064.36046                  22477596.2924
     -2660.8694
 06  6 27 22  3 30.0000000  0  8G 2G27G 4G10G24G17G 8G13
  22598410.3644  -12332879.83248  -9605114.26346                  22598406.3794
      2865.9134
  22884429.0654   -9952745.68448  -7750923.11245                  22884426.1894
      1060.6014
  21263681.6764  -21175547.11948 -16494494.95346                  21263678.0824
      1392.0414
  23196731.7104   -6236037.88247  -6187523.09644                  23196729.6224
      1184.1554
  21754712.2704  -16019978.91447 -13807172.00946                  21754710.7974
       347.1194
  21382606.5534  -22572571.31848 -17575050.69347                  21382603.8664
     -2268.8534
  23578347.8344   -8728164.25747  -6792460.08745                  23578346.4864
      2381.0554
  22492817.1824  -16849958.92847 -13123749.64546                  22492814.2364
     -2670.6644
 06  6 27 22  4  0.0000000  0  8G 2G27G 4G10G24G17G 8G13
  22582050.1554  -12418853.60048  -9672106.80746                  22582046.5694
      2865.6644
  22878401.1684   -9984420.78448  -7775605.00245                  22878399.0204
      1051.1084
  21255750.8774  -21217222.73248 -16526969.48147                  21255747.4064
      1386.2994
  23189987.4134   -6271483.48147  -6215143.05645                  23189985.5014
      1178.8484
  21752753.0954  -16030275.58047 -13815195.43046                  21752750.9554
       339.3314
  21395593.8984  -22504322.01248 -17521869.45547                  21395590.7944
     -2281.0694
  23564755.8964   -8799591.34347  -6848117.54345                  23564753.4514
      2380.7864
  22508091.2354  -16769692.74647 -13061204.59446                  22508088.3544
     -2680.4544
 06  6 27 22  4 30.0000000  0  9G 2G27G29G 4G10G24G17G 8G13
  22565691.9154  -12504816.16448  -9739090.62446                  22565688.3094
      2865.3034
  22872427.8814  -10015811.54248  -7800065.33145                  22872424.8794
      1041.7434
  24250352.5194    -243048.20645
      3815.1074
  21247853.9324  -21258724.16048 -16559308.27547                  21247850.3574
      1380.5524
  23183271.8464   -6306770.74747  -6242639.63045                  23183270.1734
      1173.7404
  21750838.3654  -16040337.68747 -13823036.05446                  21750836.6604
       331.5724
  21408650.1924  -22435708.87548 -17468404.69147                  21408647.0454
     -2293.0274
  23551164.3724   -8871012.00347  -6903770.01345                  23551163.0904
      2380.6644
  22523420.7934  -16689134.64147 -12998432.09646                  22523418.1854
     -2690.0054
 06  6 27 22  5  0.0000000  0  9G 2G27G29G 4G10G24G17G 8G13
  22549336.3324  -12590764.42248  -9806063.27846                  22549332.9884
      2864.8494
  22866509.0084  -10046914.63947  -7824301.50345                  22866506.2104
      1032.0954
  24228587.7504    -357413.29845
      3809.1944
  21239989.7904  -21300048.56848 -16591509.12847                  21239986.9804
      1374.7024
  23176587.9034   -6341899.74547  -6270012.87345                  23176584.3644
      1168.5254
  21748968.9304  -16050162.25647 -13830691.58646                  21748966.8594
       323.7164
  21421776.3704  -22366733.52348 -17414657.67747                  21421772.7174
     -2305.0004
  23537576.3114   -8942422.64047  -6959414.65745                  23537574.1074
      2380.2694
  22538805.6194  -16608286.65947 -12935433.72146                  22538803.2344
     -2699.6294
 06  6 27 22  5 30.0000000  0  8G 2G27G 4G10G24G17G 8G13
  22532983.0604  -12676703.83848  -9873029.05646                  22532979.4214
      2864.0824
  22860643.7124  -10077735.86948  -7848318.05945                  22860641.5914
      1022.2614
  21232158.8364  -21341201.34848 -16623576.23947                  21232155.3254
      1368.4334
  23169930.6504   -6376879.29047  -6297269.66145                  23169928.4914
      1163.1744
  21747143.3664  -16059754.94347 -13838166.43546                  21747141.3854
       315.5034
  21434968.6724  -22297406.22548 -17360636.43347                  21434965.7784
     -2317.1484
  23523988.6124   -9013828.21047  -7015055.37545                  23523985.8094
      2379.7564
  22554244.5684  -16527159.07647 -12872217.47046                  22554240.9834
     -2709.3114
 06  6 27 22  6  0.0000000  0  8G 2G27G 4G10G24G17G 8G13
  22516632.1354  -12762626.10448  -9939981.47246                  22516628.2954
      2863.8974
  22854834.4524  -10108266.06448  -7872107.81345                  22854832.0294
      1012.9304
  21224362.0614  -21382174.08847 -16655503.07347                  21224358.7944
      1362.7544
  23163304.0144   -6411703.78147  -6324405.65245                  23163301.1374
      1158.3154
  21745364.0444  -16069107.43448 -13845454.12146                  21745361.6584
       307.8524
  21448229.2044  -22227722.97548 -17306337.82847                  21448225.9244
     -2328.5994
  23510403.1914   -9085219.36547  -7070684.83045                  23510400.8834
      2379.5754
  22569736.3924  -16445748.34447 -12808780.59546                  22569733.6724
     -2718.2814
 06  6 27 22  6 30.0000000  0  8G 2G27G 4G10G24G17G 8G13
  22500286.3474  -12848525.98348 -10006916.43946                  22500282.4744
      2862.9154
  22849080.9084  -10138500.00548  -7895666.72445                  22849078.4004
      1002.8124
  21216600.1454  -21422961.58948 -16687285.54247                  21216597.3084
      1356.4364
  23156706.9234   -6446371.44347  -6351419.43045                  23156703.7234
      1152.9934
  21743630.7774  -16078215.01947 -13852550.96846                  21743628.3204
       299.4294
  21461557.3504  -22157683.38648 -17251761.54947                  21461553.8344
     -2340.6054
  23496821.5804   -9156590.05647  -7126298.36145                  23496819.8414
      2378.5504
  22585281.6414  -16364053.94447 -12745122.66745                  22585279.2024
     -2727.8864
 06  6 27 22  7  0.0000000  0  8G 2G27G 4G10G24G17G 8G13
  22483943.9844  -12934404.31348 -10073834.62346                  22483939.9084
      2862.2324
  22843383.9814  -10168438.70548  -7918995.56445                  22843381.4744
       993.1354
  21208874.0514  -21463564.66947 -16718924.31547                  21208870.6224
      1350.4834
  23150138.8654   -6480886.61147  -6378314.37045                  23150136.6184
      1148.0474
  21741943.8324  -16087078.77647 -13859457.80146                  21741942.1184
       291.5234
  21474952.2554  -22087293.06348 -17196911.97047                  21474948.2594
     -2351.9734
  23483244.2644   -9227940.42747  -7181896.03745                  23483242.1854
      2378.1594
  22600880.5484  -16282081.61247 -12681248.17646                  22600878.0744
     -2736.8604
 06  6 27 22  7 30.0000000  0  8G 2G27G 4G10G24G17G 8G13
  22467606.9714  -13020258.54148 -10140734.03546                  22467600.1704
      2861.5144
  22837742.7904  -10198079.46248  -7942092.26045                  22837740.5284
       983.0664
  21201183.1434  -21503980.73248 -16750417.38047                  21201179.3944
      1344.1654
  23143599.6364   -6515250.17747  -6405091.16045                  23143597.1974
      1143.0864
  21740304.0694  -16095696.27047 -13866172.77346                  21740301.8954
       283.1014
  21488413.0514  -22016554.47648 -17141791.02247                  21488410.3724
     -2363.7354
  23469671.3074   -9299266.80147  -7237475.02845                  23469669.0454
      2377.1444
  22616532.0174  -16199833.89347 -12617159.11545                  22616529.7854
     -2746.1434
 06  6 27 22  8  0.0000000  0  8G 2G27G 4G10G24G17G 8G13
  22451274.2074  -13106086.46248 -10207612.91646                  22451264.8924
      2860.3324
  22832160.4104  -10227420.05647  -7964955.04645                  22832157.2914
       972.7984
  21193527.7834  -21544207.55148 -16781762.96047                  21193524.5084
      1337.5494
  23137089.1614   -6549462.98747  -6431750.50345                  23137087.2894
      1137.7934
  21738711.4834  -16104065.47248 -13872694.23446                  21738709.0724
       274.6734
  21501940.1584  -21945469.96148 -17086400.50847                  21501936.7824
     -2375.3474
  23456103.1664   -9370566.75047  -7293033.41345                  23456101.2214
      2376.0204
  22632235.4404  -16117313.19447 -12552857.31546                  22632232.7184
     -2755.3324
 06  6 27 22  8 30.0000000  0  9G 2G27G29G 4G10G24G17G 8G13
  22434947.1984  -13191886.26548 -10274469.88846                  22434938.0544
      2859.5904
  22826634.1164  -10256458.88648  -7987582.69945                  22826631.6574
       962.9644
  24077255.1224    -109228.05044
      3763.9994
  21185909.5054  -21584243.70748 -16812959.98346                  21185906.5474
      1331.3924
  23130606.6724   -6583526.55047  -6458293.53945                  23130605.6534
      1133.0084
  21737166.1384  -16112185.09748 -13879021.22546                  21737164.7624
       266.5484
  21515532.3864  -21874042.70848 -17030742.92347                  21515528.7704
     -2386.5044
  23442540.7904   -9441837.90847  -7348569.38545                  23442538.8364
      2375.2004
  22647990.0874  -16034523.00147 -12488345.52945                  22647987.0414
     -2764.1264
 06  6 27 22  9  0.0000000  0  9G 2G27G29G 4G10G24G17G 8G13
  22418624.0764  -13277663.02348 -10341308.91446                  22418616.8534
      2858.9014
  22821164.3794  -10285200.54447  -8009978.79845                  22821161.7074
       953.1694
  24055784.8774    -222049.47944
      3757.7934
  21178325.9844  -21624093.99948 -16844012.16747                  21178323.0054
      1325.3034
  23124151.6364   -6617449.45747  -6484726.97245                  23124150.0924
      1128.4334
  21735667.6144  -16120060.62848 -13885158.00946                  21735665.6824
       258.5114
  21529187.8934  -21802282.39748 -16974825.83047                  21529184.3874
     -2397.4904
  23428982.6784   -9513084.21947  -7404085.98745                  23428980.5544
      2374.5364
  22663794.0094  -15951472.97047 -12423631.27045                  22663791.0974
     -2772.5594
 06  6 27 22  9 30.0000000  0  9G 2G27G29G 4G10G24G17G 8G13
  22402306.6674  -13363410.77348 -10408125.34846                  22402303.4604
      2857.6904
  22815753.4754  -10313639.46747  -8032138.98845                  22815750.9424
       942.8524
  24034351.3394
      3750.4784
  21170779.5644  -21663752.42748 -16874914.84447                  21170776.4484
      1318.6574
  23117724.0714   -6651228.98047  -6511048.68145                  23117722.5264
      1123.5554
  21734216.8144  -16127686.41847 -13891100.19746                  21734215.1974
       249.8784
  21542907.4684  -21730187.78448 -16918648.23147                  21542903.4674
     -2408.8094
  23415431.8654   -9584298.89847  -7459577.95745                  23415429.7034
      2373.2324
  22679647.5424  -15868162.07847 -12358713.76245                  22679644.0944
     -2781.5144
 06  6 27 22 10  0.0000000  0  8G 2G27G 4G10G24G17G 8G13
  22385996.5144  -13449122.46248 -10474913.69846                  22385993.5634
      2856.3774
  22810400.0354  -10341768.48648  -8054057.70945                  22810398.0884
       932.3144
  21163270.4484  -21703212.26448 -16905662.78547                  21163267.4034
      1311.9344
  23111324.2924   -6684861.39147  -6537255.75645                  23111322.5854
      1118.5254
  21732814.3494  -16135055.64747 -13896842.47046                  21732812.4624
       241.2354
  21556690.2584  -21657757.09348 -16862208.76647                  21556686.9354
     -2419.9904
  23401887.4444   -9655473.99047  -7515039.07245                  23401884.8404
      2371.7874
  22695551.0084  -15784588.48747 -12293591.54945                  22695548.2744
     -2790.1814
 06  6 27 22 10 30.0000000  0  8G 2G27G 4G10G24G17G 8G13
  22369692.5694  -13534801.91848 -10541676.92646                  22369688.6004
      2855.2884
  22805105.4344  -10369591.46847  -8075737.94545                  22805103.5744
       922.2464
  21155798.9624  -21742477.46048 -16936259.04247                  21155795.5604
      1305.4884
  23104950.2264   -6718353.82347  -6563353.75745                  23104949.1234
      1114.0584
  21731460.1494  -16142172.70447 -13902388.23646                  21731458.4854
       232.8914
  21570536.2404  -21584998.89348 -16805514.08647                  21570532.1034
     -2430.8064
  23388349.5634   -9726613.12447  -7570472.16145                  23388347.5234
      2370.5474
  22711502.7854  -15700761.05247 -12228271.52845                  22711500.0594
     -2798.5994
 06  6 27 22 11  0.0000000  0  8G 2G27G 4G10G24G17G 8G13
  22353395.1844  -13620443.78248 -10608410.85546                  22353391.0344
      2854.2434
  22799870.4304  -10397103.17947  -8097175.62645                  22799868.6544
       911.9974
  21148364.7174  -21781542.47748 -16966699.32247                  21148361.4234
      1298.9314
  23098604.7204   -6751704.46447  -6589341.27345                  23098602.3304
      1109.3854
  21730154.6764  -16149032.39148 -13907733.44446                  21730152.8404
       224.4784
  21584443.5604  -21511912.66148 -16748563.79547                  21584440.4584
     -2441.5194
  23374820.4504   -9797709.81047  -7625872.16745                  23374818.6664
      2369.2634
  22727502.9924  -15616679.06447 -12162753.15445                  22727500.0754
     -2806.8364
 06  6 27 22 11 30.0000000  0  9G 2G27G29G 4G10G24G17G 8G13
  22337104.7984  -13706050.56947 -10675117.45546                  22337100.3894
      2852.7204
  22794694.0514  -10424306.46647  -8118372.98245                  22794692.2744
       901.4754
  23949029.6754
      3722.1684
  21140968.5844  -21820409.99648 -16996985.70547                  21140965.5854
      1292.0754
  23092283.8064   -6784918.99947  -6615222.71845                  23092281.2484
      1104.6584
  21728897.5074  -16155637.84948 -13912880.55946                  21728895.5274
       215.7234
  21598412.7334  -21438505.72848 -16691363.61947                  21598408.8854
     -2452.3884
  23361299.0124   -9868765.90447  -7681240.55145                  23361296.5334
      2367.6514
  22743550.9184  -15532349.94847 -12097042.21545                  22743547.6994
     -2815.1614
 06  6 27 22 12  0.0000000  0  9G 2G27G29G 4G10G24G17G 8G13
  22320821.5414  -13791618.40247 -10741793.68946                  22320816.9524
      2851.7484
  22789576.5754  -10451197.13747  -8139326.75746                  22789574.7754
       891.2944
  23927801.2634    -232303.87944
      3715.2834
  21133610.6094  -21859076.20348 -17027115.23247                  21133607.4194
      1285.6354
  23085988.4084   -6817997.00847  -6640997.76745                  23085986.7314
      1100.5424
  21727690.1554  -16161985.36948 -13917826.66946                  21727687.9604
       207.4714
  21612441.7244  -21364779.38548 -16633914.54847                  21612438.7484
     -2462.7004
  23347786.0334   -9939776.55547  -7736573.51845                  23347783.7964
      2366.3334
  22759644.6084  -15447774.89147 -12031139.62445                  22759641.4654
     -2823.1494
 06  6 27 22 12 30.0000000  0  9G 2G27G29G 4G10G24G17G 8G13
  22304546.4924  -13877144.33348 -10808437.27446                  22304541.9644
      2849.6924
  22784519.3764  -10477772.71047  -8160034.99946                  22784517.1304
       880.0984
  23906612.8694    -343648.34045
      3707.6224
  21126291.3834  -21897538.10348 -17057085.54947                  21126288.6904
      1278.0764
  23079720.5444   -6850939.04347  -6666666.89645                  23079717.5104
      1095.3034
  21726531.0404  -16168072.71748 -13922570.05646                  21726529.4254
       198.0084
  21626532.7424  -21290735.47648 -16576218.03047                  21626529.2104
     -2473.8674
  23334282.5864  -10010738.35547  -7791868.44545                  23334280.4224
      2364.0334
  22775785.0874  -15362955.95847 -11965046.99745                  22775782.6314
     -2831.8854
 06  6 27 22 13  0.0000000  0  9G 2G27G29G 4G10G24G17G 8G13
  22288281.2454  -13962620.91048 -10875042.39046                  22288276.6914
      2848.4914
  22779523.6454  -10504025.74947  -8180491.90946                  22779521.6384
       869.7464
  23885468.2894    -454766.77245
      3700.3084
  21119012.3804  -21935788.76648 -17086891.27747                  21119009.2934
      1271.5624
  23073477.6384   -6883741.36047  -6692227.14945                  23073475.9964
      1091.1874
  21725424.0024  -16173892.80448 -13927105.18346                  21725422.3884
       189.6534
  21640683.7494  -21216371.43448 -16518272.04047                  21640680.1594
     -2484.0334
  23320790.0284  -10081643.33147  -7847119.05445                  23320787.4174
      2362.6034
  22791972.4464  -15277890.89247 -11898762.58945                  22791969.7774
     -2839.4924
 06  6 27 22 13 30.0000000  0  9G 2G27G29G 4G10G24G17G 8G13
  22272025.9884  -14048041.39148 -10941603.80046                  22272021.3254
      2846.7144
  22774590.0964  -10529950.07047  -8200692.67146                  22774588.7864
       858.8924
  23864367.8854
      3692.7004
  21111775.3334  -21973821.55048 -17116527.21647                  21111772.3904
      1264.4194
  23067263.4034   -6916400.63247  -6717675.94145                  23067261.2314
      1086.6314
  21724368.3394  -16179439.40748 -13931427.22846                  21724366.5884
       180.6404
  21654895.5354  -21141685.90948 -16460075.56447                  21654891.9004
     -2494.5314
  23307309.1694  -10152484.24047  -7902319.75745                  23307307.3984
      2360.6354
  22808207.3874  -15192577.92247 -11832285.00545                  22808203.9784
     -2847.4664
 06  6 27 22 14  0.0000000  0  9G 2G27G29G 4G10G24G17G 8G13
  22255779.7454  -14133415.11248 -11008128.77546                  22255774.8954
      2844.9024
  22769718.0284  -10555555.00048  -8220644.56846                  22769715.9114
       847.9934
  23843308.9654    -676313.52544
      3684.9854
  21104577.6294  -22011645.59648 -17146000.51147                  21104574.5824
      1257.1974
  23061073.1774   -6948929.47947  -6743023.10845                  23061070.6034
      1081.9734
  21723362.8724  -16184722.25548 -13935543.73946                  21723361.0454
       171.5584
  21669166.1774  -21066693.01248 -16401639.59247                  21669162.4754
     -2504.9664
  23293838.9284  -10223269.69847  -7957477.23845                  23293836.9324
      2358.3844
  22824486.3324  -15107031.24847 -11765625.31645                  22824482.9804
     -2855.6204
 06  6 27 22 14 30.0000000  0  9G 2G27G29G 4G10G24G17G 8G13
  22239543.1424  -14218739.76048 -11074615.50446                  22239538.6034
      2843.1054
  22764906.5084  -10580838.47948  -8240345.97846                  22764904.9574
       837.2714
  23822293.5884    -786747.89245
      3677.2074
  21097419.6854  -22049258.72248 -17175309.45347                  21097416.6874
      1250.0494
  23054908.2754   -6981328.74047  -6768269.29145                  23054904.9264
      1077.6714
  21722408.4434  -16189739.37248 -13939453.18846                  21722406.6424
       162.5634
  21683495.3084  -20991394.94348 -16342965.80947                  21683492.2494
     -2515.0984
  23280380.2404  -10293996.34247  -8012588.92045                  23280377.3334
      2356.3724
  22840808.7504  -15021253.40647 -11698785.51745                  22840805.9274
     -2863.2574
 06  6 27 22 15  0.0000000  0  9G 2G27G29G 4G10G24G17G 8G13
  22223317.6094  -14304006.65148 -11141057.23246                  22223312.8514
      2841.2794
  22760158.3674  -10605791.94147  -8259790.23646                  22760156.7764
       826.3434
  23801324.8974    -896946.37746
      3669.2634
  21090304.2374  -22086652.53248 -17204447.49047                  21090301.0944
      1242.9054
  23048768.2624   -7013593.31247  -6793410.54945                  23048765.7174
      1073.3694
  21721505.7554  -16194482.93948 -13943149.48946                  21721503.8394
       153.6774
  21697882.4154  -20915788.62848 -16284051.83547                  21697879.8584
     -2525.2394
  23266934.6444  -10364654.98247  -8067647.58645                  23266932.6554
      2354.1854
  22857176.8154  -14935241.01147 -11631762.92545                  22857173.4894
     -2870.8984
 06  6 27 22 15 30.0000000  0  9G 2G27G29G 4G10G24G17G 8G13
  22207102.1924  -14389217.21048 -11207455.03946                  22207097.8384
      2839.1604
  22755472.1594  -10630416.91047  -8278978.52845                  22755469.9274
       815.1374
  23780397.1034   -1006910.17845
      3661.4414
  21083229.5304  -22123828.70248 -17233415.95147                  21083226.4704
      1235.3864
  23042653.6694   -7045728.08447  -6818450.61145                  23042651.3394
      1068.8284
  21720654.7034  -16198954.71248 -13946633.98146                  21720652.7934
       144.2924
  21712327.3884  -20839880.23648 -16224902.47347                  21712323.9834
     -2535.4344
  23253501.5734  -10435246.28947  -8122653.79245                  23253498.9494
      2351.7484
  22873587.6054  -14849000.56847 -11564562.63645                  22873584.9574
     -2878.5694
 06  6 27 22 16  0.0000000  0  9G 2G27G29G 4G10G24G17G 8G13
  22190897.8224  -14474373.24448 -11273810.38146                  22190892.5334
      2837.5294
  22750848.0774  -10654716.07047  -8297912.92446                  22750846.1764
       804.4144
  23759516.2534   -1116640.84945
      3653.6234
  21076196.2674  -22160789.14948 -17262216.30247                  21076193.2994
      1228.2624
  23036561.7664   -7077738.68447  -6843393.92345                  23036558.6924
      1064.8734
  21719855.9334  -16203157.28248 -13949908.74647                  21719852.8814
       135.4744
  21726828.5524  -20763677.07748 -16165523.41247                  21726824.7164
     -2545.0684
  23240080.9924  -10505771.36747  -8177608.36845                  23240078.7984
      2349.6294
  22890040.6924  -14762538.96647 -11497190.03145                  22890038.1994
     -2885.7234
 06  6 27 22 16 30.0000000  0  9G 2G27G29G 4G10G24G17G 8G13
  22174705.7794  -14559464.74048 -11340115.43346                  22174700.4964
      2835.0684
  22746288.6744  -10678679.39047  -8316585.65146                  22746286.5084
       792.9644
  23738682.2674   -1226128.07646  -1383666.23842                  23738681.1224
      3645.2884
  21069206.1644  -22197523.92148 -17290840.80747                  21069203.3704
      1220.4984
  23030495.1644   -7109618.25047  -6868235.14645                  23030493.3244
      1060.2784
  21719109.1924  -16207081.00248 -13952966.22446                  21719106.6034
       125.9424
  21741386.5244  -20687173.45448 -16105910.22847                  21741382.8254
     -2555.2744
  23226675.1154  -10576219.40947  -8232502.94645                  23226672.6504
      2346.7484
  22906537.3914  -14675851.03747 -11429641.05845                  22906534.1874
     -2893.4724
 06  6 27 22 17  0.0000000  0  9G 2G27G29G 4G10G24G17G 8G13
  22158524.7544  -14644494.73748 -11406372.55946                  22158520.3174
      2833.5844
  22741791.2874  -10702310.63147  -8334999.59546                  22741789.2024
       782.5004
  23717894.0064   -1335374.64646  -1468793.41442                  23717892.0164
      3637.9984
  21062258.2434  -22234036.38748 -17319292.08347                  21062254.8304
      1213.6284
  23024452.1574   -7141373.76747  -6892979.71045                  23024450.2384
      1056.7974
  21718413.9254  -16210729.43648 -13955809.15346                  21718412.2124
       117.3054
  21756000.4214  -20610378.30348 -16046069.88347                  21755997.1114
     -2564.3554
  23213283.4694  -10646593.18947  -8287339.65445                  23213281.3874
      2344.7754
  22923074.8154  -14588945.03947 -11361922.16145                  22923072.1254
     -2900.1024
 06  6 27 22 17 30.0000000  0  9G 2G27G29G 4G10G24G17G 8G13
  22142355.6944  -14729462.93548 -11472581.52046                  22142350.9804
      2831.1964
  22737357.8754  -10725609.76148  -8353154.76146                  22737355.7274
       771.0064
  23697150.3154   -1444380.09145  -1553732.80542                  23697147.5564
      3629.3464
  21055352.1004  -22270326.47248 -17347570.07747                  21055349.4104
      1205.8304
  23018432.6004   -7173008.15046  -6917629.84945                  23018431.3904
      1052.2314
  21717771.3854  -16214103.09448 -13958437.96946                  21717770.6814
       107.7884
  21770668.1734  -20533296.11448 -15986005.87047                  21770665.1874
     -2574.2774
  23199905.9944  -10716891.30547  -8342117.38645                  23199903.6644
      2341.9144
  22939653.7784  -14501825.57847 -11294036.94445                  22939650.4134
     -2907.6764
 06  6 27 22 18  0.0000000  0  9G 2G27G29G 4G10G24G17G 8G13
  22126199.2164  -14814365.88948 -11538739.65546                  22126193.7024
      2828.8484
  22732988.3244  -10748573.49148  -8371048.57146                  22732985.6254
       759.8054
  23676454.2554   -1553141.16645
      3621.3974
  21048489.2094  -22306390.98848 -17375672.30247                  21048486.5504
      1198.2914
  23012435.2714   -7204521.83046  -6942185.95545                  23012433.4954
      1048.3984
  21717182.8454  -16217199.18948 -13960850.51646                  21717181.2514
        98.5064
  21785390.7064  -20455928.29148 -15925719.30247                  21785387.2834
     -2583.7114
  23186543.2344  -10787109.95847  -8396833.21445                  23186541.9984
      2339.2584
  22956271.4844  -14414494.41747 -11225986.77145                  22956269.1394
     -2914.6444
 06  6 27 22 18 30.0000000  0  9G 2G27G29G 4G10G24G17G 8G13
  22110057.3364  -14899193.62648 -11604839.18246                  22110052.2224
      2826.2944
  22728683.2844  -10771192.39447  -8388673.68645                  22728680.8254
       748.1744
  23655804.9104   -1661647.03845
      3612.7494
  21041671.0684  -22342220.10648 -17403591.09347                  21041668.4974
      1190.3664
  23006463.3994   -7235908.17846  -6966642.86045                  23006461.1024
      1044.0484
  21716649.0204  -16220008.36848 -13963039.51146                  21716646.1254
        88.8824
  21800169.1244  -20378270.62148 -15865206.86947                  21800165.5894
     -2593.4334
  23173198.2824  -10857238.61947  -8451478.91645                  23173196.2934
      2336.1474
  22972931.6914  -14326946.80847 -11157767.90245                  22972929.0434
     -2921.7974
 06  6 27 22 19  0.0000000  0  9G 2G27G29G 4G10G24G17G 8G13
  22093928.1094  -14983951.67648 -11670884.40146                  22093922.7664
      2824.1164
  22724443.8184  -10793472.44448  -8406034.75245                  22724441.0414
       737.0464
  23635204.5304   -1769903.42446
      3604.5314
  21034896.8014  -22377819.78448 -17431331.09947                  21034893.5144
      1182.8474
  23000513.2604   -7267176.39747  -6991007.68945                  23000510.9184
      1040.3274
  21716167.8644  -16222536.95048 -13965009.83347                  21716165.3704
        79.6094
  21815000.1374  -20300333.46948 -15804476.67047                  21814996.7834
     -2602.5244
  23159869.8114  -10927282.35947  -8506058.46745                  23159867.5874
      2333.3154
  22989631.3934  -14239193.28247 -11089388.60845                  22989628.2134
     -2928.4474
 06  6 27 22 19 30.0000000  0  9G 2G27G29G 4G10G24G17G 8G13
  22077812.5554  -15068639.40848 -11736874.80946                  22077807.6574
      2821.6704
  22720268.0904  -10815413.27148  -8423131.49445                  22720265.9444
       725.5524
  23614652.7154   -1877909.29346  -1891547.65642                  23614651.8864
      3595.7814
  21028166.1224  -22413189.31748 -17458891.76147                  21028162.8834
      1175.0684
  22994584.8894   -7298329.15247  -7015282.55845                  22994582.8434
      1036.3874
  21715739.7794  -16224784.55648 -13966761.22547                  21715737.1914
        70.1464
  21829883.1774  -20222121.15248 -15743532.04447                  21829880.2554
     -2611.7824
  23146557.1284  -10997239.45247  -8560570.46845                  23146555.6524
      2330.2834
  23006367.5104  -14151238.22147 -11020852.27645                  23006365.8944
     -2935.3174
 06  6 27 22 20  0.0000000  0  9G 2G27G29G 4G10G24G17G 8G13
  22061711.9424  -15153251.24248 -11802806.10946                  22061706.5464
      2819.0634
  22716158.3274  -10837010.34248  -8439960.37545                  22716155.7994
       714.0534
  23594147.8184   -1985659.53346  -1975508.90242                  23594145.7464
      3587.2904
  21021480.4364  -22448323.86448 -17486269.32647                  21021477.5354
      1167.1144
  22988679.0534   -7329364.97747  -7039466.30045                  22988676.8094
      1032.5834
  21715366.3374  -16226746.96948 -13968290.38846                  21715364.1654
        60.5964
  21844818.7464  -20143633.82448 -15682373.14747                  21844815.8004
     -2620.7764
  23133262.6864  -11067104.15747  -8615010.49945                  23133260.1874
      2327.2074
  23023144.3714  -14063081.48247 -10952158.77745                  23023141.0954
     -2941.9434
 06  6 27 22 20 30.0000000  0  9G 2G27G29G 4G10G24G17G 8G13
  22045625.3474  -15237784.80248 -11868676.40946                  22045620.3964
      2816.6704
  22712114.8124  -10858261.67448  -8456519.82545                  22712111.8504
       702.8764
  23573694.0804   -2093150.99046  -2059268.47743                  23573690.9504
      3578.7744
  21014839.5744  -22483220.99748 -17513461.89847                  21014836.7654
      1159.5214
  22982794.8484   -7360284.38746  -7063559.35145                  22982792.6264
      1028.9314
  21715047.0274  -16228422.11548 -13969595.68846                  21715045.5424
        51.2164
  21859806.2314  -20064873.78148 -15621001.72446                  21859802.9644
     -2629.6144
  23119986.2604  -11136873.20347  -8669375.98845                  23119984.3334
      2324.2294
  23039957.6714  -13974725.45747 -10883310.00045                  23039955.0944
     -2948.2914
 06  6 27 22 21  0.0000000  0  9G 2G27G29G 4G10G24G17G 8G13
  22029553.6854  -15322242.44548 -11934487.55446                  22029548.5424
      2813.8724
  22708135.7714  -10879170.07648  -8472812.08645                  22708132.8934
       691.1184
  23553286.2064   -2200386.28346  -2142828.37543                  23553284.6124
      3570.1424
  21008243.4434  -22517883.45948 -17540471.61147                  21008240.7984
      1151.3534
  22976932.5484   -7391093.78847  -7087566.67945                  22976929.7424
      1025.0684
  21714782.1414  -16229813.15048 -13970679.62146                  21714780.7854
        41.5144
  21874844.5154  -19985848.74748 -15559423.83147                  21874841.1944
     -2638.5994
  23106727.2594  -11206548.42547  -8723668.35945                  23106725.8174
      2320.8594
  23056807.5564  -13886177.86847 -10814311.95245                  23056805.3224
     -2954.7614
 06  6 27 22 21 30.0000000  0  9G 2G27G29G 4G10G24G17G 8G13
  22013496.6774  -15406621.83248 -12000237.71746                  22013491.4344
      2811.4844
  22704222.5024  -10899733.39448  -8488835.43745                  22704219.6394
       679.8444
  23532930.7194   -2307362.84046  -2226186.68343                  23532928.2924
      3561.7334
  21001692.5274  -22552309.06848 -17567296.75947                  21001689.6744
      1143.7354
  22971090.5014   -7421794.41347  -7111489.24845                  22971087.6524
      1021.6214
  21714572.0204  -16230918.39548 -13971540.83346                  21714570.8374
        32.3054
  21889931.8694  -19906561.65348 -15497641.73147                  21889929.3734
     -2647.1194
  23093486.8604  -11276126.94447  -8777885.35745                  23093485.1264
      2317.7934
  23073693.4994  -13797441.40947 -10745166.72045                  23073691.1144
     -2960.7964
 06  6 27 22 22  0.0000000  0  9G 2G27G29G 4G10G24G17G 8G13
  21997455.9014  -15490918.93848 -12065923.76446                  21997450.2484
      2808.5744
  22700376.1214  -10919948.98148  -8504587.83545                  22700372.2454
       668.1404
  23512622.6954   -2414076.66846  -2309340.27143                  23512620.7514
      3552.8664
  20995187.1974  -22586494.45248 -17593934.71847                  20995184.5954
      1135.5474
  22965268.5934   -7452385.95047  -7135326.80045                  22965266.5084
      1017.9254
  21714416.5114  -16231734.80048 -13972177.00246                  21714414.9404
        22.4514
  21905069.6894  -19827013.83248 -15435656.46947                  21905066.5824
     -2655.8254
  23080266.2184  -11345604.22447  -8832023.50845                  23080263.8444
      2314.2244
  23090615.7004  -13708517.46147 -10675875.41045                  23090612.7764
     -2967.1004
 06  6 27 22 22 30.0000000  0  9G 2G27G29G 4G10G24G17G 8G13
  21981431.2304  -15575127.77648 -12131541.04346                  21981425.5424
      2805.2684
  22696596.6474  -10939810.79148  -8520064.56945                  22696593.6374
       655.9284
  23492367.5524   -2520521.46046  -2392284.28243                  23492364.8474
      3543.4084
  20988728.7204  -22620433.45848 -17620380.69347                  20988726.0424
      1126.9484
  22959468.6824   -7482865.59547  -7159077.16245                  22959466.7144
      1014.0044
  21714317.5364  -16232256.97548 -13972583.89246                  21714315.4504
        12.2274
  21920256.9184  -19747204.21048 -15373467.20546                  21920253.7494
     -2664.8394
  23067065.2754  -11414973.14547  -8886077.19445                  23067063.2314
      2310.3324
  23107573.0134  -13619404.93247 -10606437.15445                  23107570.7694
     -2973.7304
 06  6 27 22 23  0.0000000  0  9G 2G27G29G 4G10G24G17G 8G13
  21965423.7134  -15659246.33448 -12197087.94946                  21965418.0714
      2802.4464
  22692884.0634  -10959317.91248  -8535264.91845                  22692882.0554
       644.2824
  23472163.9624   -2626695.33746  -2475017.19043                  23472161.1014
      3534.5854
  20982317.3884  -22654124.55148 -17646633.48947                  20982314.9374
      1118.8434
  22953689.9524   -7513235.28447  -7182741.85745                  22953687.2614
      1010.5134
  21714274.4864  -16232483.74448 -13972760.60546                  21714272.2204
         2.6224
  21935493.5794  -19667136.23848 -15311076.62747                  21935490.6574
     -2673.2374
  23053885.8784  -11484231.63947  -8940044.86446                  23053883.8484
      2306.7194
  23124565.8724  -13530106.84647 -10536854.28745                  23124563.6274
     -2979.6784
 06  6 27 22 23 30.0000000  0  9G 2G27G29G 4G10G24G17G 8G13
  21949434.4874  -15743272.00648 -12262562.48446                  21949428.5424
      2799.2874
  22689240.1334  -10978468.17348  -8550187.21846                  22689238.0194
       632.2804
  23452011.3664   -2732595.83346  -2557537.10843                  23452008.4394
      3525.4354
  20975954.6454  -22687565.48848 -17672691.36247                  20975951.2964
      1110.4304
  22947931.2524   -7543495.94847  -7206321.58045                  22947929.2584
      1006.8164
  21714288.1174  -16232413.41848 -13972705.80946                  21714285.7384
        -7.3634
  21950778.7704  -19586812.48748 -15248486.74346                  21950776.1374
     -2681.6994
  23040728.0004  -11553376.64647  -8993924.07145                  23040725.4754
      2302.8574
  23141593.6924  -13440625.76347 -10467128.85545                  23141591.8774
     -2985.7774
 06  6 27 22 24  0.0000000  0  9G 2G27G29G 4G10G24G17G 8G13
  21933462.6874  -15827202.26548 -12327962.67046                  21933457.7034
      2796.1334
  22685664.0754  -10997259.89548  -8564830.11646                  22685662.3984
       620.4494
  23431911.3394   -2838220.28546  -2639841.89843                  23431909.0124
      3516.2064
  20969638.7184  -22720754.55948 -17698552.97847                  20969635.2254
      1102.1194
  22942193.5644   -7573648.98547  -7229817.45945                  22942191.3594
      1003.3944
  21714358.2804  -16232044.54448 -13972418.39846                  21714356.6764
       -17.2664
  21966112.0324  -19506235.95248 -15185699.88046                  21966109.1484
     -2689.9764
  23027592.2004  -11622405.10447  -9047712.47045                  23027590.3994
      2299.0194
  23158655.7694  -13350964.66347 -10397263.14645                  23158653.4414
     -2991.6114
 06  6 27 22 24 30.0000000  0  9G 2G27G29G 4G10G24G17G 8G13
  21917509.1184  -15911039.32548 -12393290.23846                  21917503.5874
      2793.0134
  22682155.8824  -11015695.83148  -8579195.78646                  22682154.3984
       608.5694
  23411863.6904   -2943571.13046  -2721933.40343                  23411861.2024
      3507.1494
  20963370.3644  -22753693.91548 -17724220.01247                  20963367.5004
      1093.8184
  22936474.5714   -7603700.13747  -7253233.94145                  22936472.7294
      1000.0934
  21714484.2334  -16231379.93048 -13971900.52646                  21714482.8354
       -27.0954
  21981491.5744  -19425414.09448 -15122721.85246                  21981488.6324
     -2698.0674
  23014478.8114  -11691318.24147  -9101411.01845                  23014476.7254
      2295.2154
  23175751.3684  -13261130.67447 -10327262.69444                  23175748.1324
     -2997.2654
 06  6 27 22 25  0.0000000  0  9G 2G27G29G 4G10G24G17G 8G13
  21901573.8024  -15994778.81948 -12458541.78746                  21901568.6014
      2789.8344
  22678716.4994  -11033772.28048  -8593281.34146                  22678714.9234
       596.7144
  23391868.9494   -3048643.54246  -2803808.00943                  23391866.2824
      3497.8224
  20957150.6674  -22786379.50948 -17749689.30447                  20957148.0114
      1085.3474
  22930775.5884   -7633648.81747  -7276570.59745                  22930773.6624
       996.7684
  21714667.9834  -16230415.89248 -13971149.32846                  21714665.9444
       -36.9784
  21996918.0104  -19344347.56248 -15059553.17946                  21996914.9444
     -2706.0604
  23001387.4744  -11760111.38247  -9155016.03246                  23001385.8994
      2291.2114
  23192878.3854  -13171124.51347 -10257128.09944                  23192875.6364
     -3002.7984
 06  6 27 22 25 30.0000000  0  9G 2G27G29G 4G10G24G17G 8G13
  21885657.9054  -16078418.27648 -12523715.36846                  21885652.3304
      2785.9424
  22675345.0144  -11051487.78648  -8607085.64246                  22675343.5144
       584.1264
  23371928.0554   -3153435.58246  -2885464.13943                  23371925.2154
      3488.1204
  20950979.1494  -22818809.39548 -17774959.35647                  20950975.9694
      1076.3964
  22925095.9944   -7663496.01447  -7299828.13245                  22925093.7724
       993.0034
  21714908.9194  -16229151.30348 -13970163.94146                  21714906.6414
       -47.4854
  22012390.9394  -19263039.27348 -14996196.11446                  22012388.0424
     -2714.6054
  22988319.8374  -11828781.52147  -9208525.22045                  22988318.5874
      2286.6364
  23210038.4784  -13080948.87547 -10186861.44444                  23210035.7474
     -3009.0724
 06  6 27 22 26  0.0000000  0  9G 2G27G29G 4G10G24G17G 8G13
  21869761.7804  -16161951.26748 -12588805.99446                  21869756.6274
      2782.5834
  22672043.5064  -11068836.48647  -8620604.12846                  22672042.3964
       572.1294
  23352041.4514   -3257940.73646  -2966896.65543                  23352038.4144
      3478.5994
  20944857.7664  -22850977.43548 -17800025.37047                  20944855.3904
      1067.8914
  22919436.1954   -7693238.91746  -7323004.41945                  22919433.6444
       989.6634
  21715207.5614  -16227580.53048 -13968939.97146                  21715205.6664
       -57.4804
  22027909.7364  -19181488.38648 -14932650.01546                  22027906.2124
     -2722.4274
  22975277.4854  -11897321.57048  -9261933.05346                  22975275.1614
      2282.4224
  23227230.0064  -12990603.00247 -10116462.14244                  23227228.1364
     -3014.3854
 06  6 27 22 26 30.0000000  0  9G 2G27G29G 4G10G24G17G 8G13
  21853886.6554  -16245376.98548 -12653813.04146                  21853880.9234
      2778.9164
  22668811.5924  -11085818.59648  -8633836.95146                  22668811.2204
       559.7804
  23332208.6444   -3362158.37846  -3048105.23143                  23332206.3964
      3468.9014
  20938786.4784  -22882883.46848 -17824887.19847                  20938784.0614
      1058.9704
  22913794.9964   -7722880.64047  -7346101.87545                  22913793.2164
       986.2994
  21715564.5764  -16225703.82948 -13967477.64246                  21715562.8414
       -67.7984
  22043473.5514  -19099699.07748 -14868918.14146                  22043470.4904
     -2730.3614
  22962259.8914  -11965730.51447  -9315238.72445                  22962257.3424
      2277.8524
  23244454.6534  -12900090.74247 -10045933.17744                  23244451.8674
     -3019.9614
 06  6 27 22 27  0.0000000  0  9G 2G27G29G 4G10G24G17G 8G13
  21838032.3244  -16328692.36748 -12718734.08546                  21838027.1484
      2775.5134
  22665651.0584  -11102431.86248  -8646782.35046                  22665649.8154
       547.7344
  23312432.4494   -3466085.56046  -3129087.44643                  23312429.4694
      3459.4924
  20932765.0554  -22914524.71448 -17849542.70447                  20932762.6394
      1050.4694
  22908174.2884   -7752421.67947  -7369120.87245                  22908171.6584
       983.2324
  21715980.0824  -16223519.06048 -13965775.23146                  21715978.5524
       -77.7444
  22059082.4884  -19017673.99047 -14805002.53147                  22059079.4804
     -2737.8374
  22949267.6504  -12034004.50547  -9368439.22845                  22949265.4684
      2273.6864
  23261710.0694  -12809414.57847  -9975276.50944                  23261706.8354
     -3025.1414
 06  6 27 22 27 30.0000000  0  9G 2G27G29G 4G10G24G17G 8G13
  21822198.3334  -16411902.26748 -12783572.96146                  21822192.3454
      2771.7974
  22662558.6654  -11118681.75247  -8659444.62546                  22662557.5614
       535.4984
  23292709.7434   -3569727.04946  -3209847.01543                  23292706.6794
      3449.7854
  20926793.5094  -22945906.50848 -17873996.06847                  20926790.6434
      1041.6704
  22902570.0234   -7781870.69247  -7392068.15245                  22902566.9954
       980.0244
  21716453.5714  -16221031.71048 -13963837.05446                  21716452.2314
       -87.9884
  22074734.7094  -18935423.05448 -14740910.94246                  22074731.5234
     -2745.4444
  22936300.4254  -12102147.73047  -9421537.84045                  22936298.4184
      2269.2334
  23278993.7924  -12718584.20347  -9904499.65844                  23278991.8414
     -3030.3034
 06  6 27 22 28  0.0000000  0  9G 2G27G29G 4G10G24G17G 8G13
  21806383.2104  -16495007.54248 -12848330.29546                  21806378.4344
      2768.4674
  22659534.5444  -11134570.16347  -8671825.22146                  22659532.9824
       523.6284
  23273041.9854   -3673083.71046  -3290384.67943                  23273039.3184
      3440.5864
  20920870.7304  -22977029.64748 -17898247.89247                  20920867.4584
      1033.1254
  22896983.2584   -7811231.95247  -7414947.06145                  22896980.1064
       977.3394
  21716983.9834  -16218243.56748 -13961664.49446                  21716982.5474
       -97.8714
  22090427.6554  -18852952.46448 -14676648.18646                  22090424.8924
     -2752.5594
  22923357.9434  -12170160.73147  -9474534.95546                  22923356.0054
      2264.9564
  23296306.8004  -12627605.78246  -9833607.46644                  23296304.3754
     -3034.9224
 06  6 27 22 28 30.0000000  0  9G 2G27G29G 4G10G24G17G 8G13
  21790590.5004  -16578000.15948 -12912999.86746                  21790585.2574
      2764.4534
  22656581.5304  -11150090.11547  -8683918.68645                  22656579.1924
       511.1524
  23253429.2654   -3776148.19946  -3370694.62143                  23253426.8534
      3430.5224
  20914998.7924  -23007887.38248 -17922292.89146                  20914995.8514
      1024.1164
  22891413.4334   -7840501.75147  -7437754.68945                  22891410.8144
       974.1944
  21717572.7584  -16215147.96748 -13959252.36346                  21717571.6424
      -108.3454
  22106164.5204  -18770259.81848 -14612212.41647                  22106161.4754
     -2760.1464
  22910441.7644  -12238035.35847  -9527424.27546                  22910439.8594
      2260.2104
  23313648.4234  -12536476.59746  -9762597.77644                  23313645.1754
     -3040.1174
 06  6 27 22 29  0.0000000  0  9G 2G27G29G 4G10G24G17G 8G13
  21774819.8504  -16660874.24148 -12977577.05346                  21774814.1274
      2760.0834
  22653698.9904  -11165236.52747  -8695721.06645                  22653695.7674
       498.2964
  23233874.0374   -3878914.60946  -3450772.37144                  23233870.5414
      3420.1904
  20909178.7254  -23038473.94948 -17946126.59347                  20909175.0174
      1014.7514
  22885861.2184   -7869677.64747  -7460489.12945                  22885858.4224
       970.6644
  21718221.7394  -16211740.14848 -13956596.94846                  21718220.0154
      -119.0974
  22121942.1774  -18687344.60748 -14547603.21546                  22121939.1334
     -2767.8474
  22897553.7354  -12305765.04547  -9580200.65746                  22897551.2444
      2254.9074
  23331018.4864  -12445196.07247  -9691470.18544                  23331015.5814
     -3045.5084
 06  6 27 22 29 30.0000000  0  9G 2G27G29G 4G10G24G17G 8G13
  21759072.7644  -16743625.89048 -13042058.83846                  21759067.7484
      2756.0694
  22650888.7404  -11180006.56147  -8707230.18345                  22650883.7474
       485.7234
  23214375.3224   -3981379.33346  -3530614.94444                  23214372.6284
      3410.1764
  20903410.7194  -23068786.05148 -17969746.42847                  20903406.8694
      1005.5034
  22880327.0714   -7898759.67847  -7483150.45245                  22880324.6334
       967.6474
  21718930.4174  -16208017.29248 -13953696.06146                  21718928.7674
      -129.6394
  22137762.6644  -18604208.35548 -14482821.77046                  22137759.2054
     -2775.1324
  22884693.0394  -12373345.45447  -9632860.71745                  22884690.9144
      2249.8984
  23348416.9284  -12353765.55947  -9620225.71944                  23348414.0214
     -3050.4304
 06  6 27 22 30  0.0000000  0  9G 2G27G29G 4G10G24G17G 8G13
  21743348.6404  -16826257.56648 -13106447.14146                  21743343.0144
      2752.3634
  22648149.1854  -11194403.51448  -8718448.55945                  22648144.6954
       473.6574
  23194933.8884   -4083544.85846  -3610224.44544                  23194931.3064
      3400.4934
  20897693.9014  -23098826.66548 -17993154.70147                  20897690.2074
       996.8414
  22874809.1974   -7927753.86747  -7505743.29445                  22874806.9394
       964.9614
  21719697.8464  -16203982.68848 -13950552.21546                  21719696.6624
      -139.6834
  22153623.4984  -18520858.54647 -14417873.93446                  22153620.7254
     -2781.8314
  22871861.1544  -12440778.57447  -9685405.99546                  22871858.9184
      2245.2784
  23365843.1384  -12262192.74747  -9548870.30944                  23365840.6474
     -3054.7564
 06  6 27 22 30 30.0000000  0  9G 2G27G29G 4G10G24G17G 8G13
  21727646.8084  -16908769.12948 -13170741.86046                  21727641.7874
      2748.1594
  22645480.3864  -11208428.01147  -8729376.72246                  22645478.4944
       461.1084
  23175548.8864   -4185411.25446  -3689600.76343                  23175546.0404
      3390.2884
  20892029.0994  -23128595.79148 -18016351.43347                  20892025.6634
       987.5494
  22869307.1764   -7956663.84847  -7528270.56345                  22869305.1294
       962.0904
  21720524.7514  -16199637.34348 -13947166.24946                  21720522.8354
      -150.1954
  22169523.9194  -18437300.90848 -14352764.14546                  22169521.4204
     -2788.9214
  22859057.3214  -12508063.56547  -9737835.86546                  22859055.3004
      2240.1424
  23383295.0204  -12170482.32047  -9477407.74544                  23383292.6064
     -3059.5074
 06  6 27 22 31  0.0000000  0  9G 2G27G29G 4G10G24G17G 8G13
  21711969.5194  -16991155.62748 -13234939.11646                  21711964.0944
      2744.2434
  22642882.6864  -11222076.51947  -8740011.93546                  22642883.1304
       448.7164
  23156223.0534   -4286974.07746  -3768740.63444                  23156219.6004
      3380.4104
  20886416.7254  -23158089.41148 -18039333.48447                  20886414.8624
       978.5894
  22863822.6734   -7985488.26447  -7550731.12145                  22863820.0844
       959.5414
  21721411.8924  -16194977.41848 -13943535.15146                  21721409.5844
      -160.5574
  22185463.9464  -18353535.72848 -14287492.61846                  22185460.8254
     -2795.4594
  22846282.0724  -12575195.22447  -9790146.24145                  22846279.6234
      2235.1664
  23400772.8144  -12078634.62347  -9405838.20244                  23400770.4014
     -3063.6284
 06  6 27 22 31 30.0000000  0  9G 2G27G29G 4G10G24G17G 8G13
  21696316.2714  -17073413.82448 -13299036.39546                  21696310.9004
      2739.6534
  22640357.4964  -11235346.77847  -8750352.43446                  22640359.8244
       435.8944
  23136954.2814   -4388229.96546  -3847641.30543                  23136951.2704
      3369.7564
  20880857.2444  -23187304.51548 -18062098.51147                  20880855.7134
       969.0634
  22858354.0614   -8014227.61346  -7573125.42545                  22858351.5214
       956.3094
  21722358.7114  -16190000.58048 -13939657.13746                  21722357.0944
      -171.3234
  22201443.3234  -18269564.98948 -14222060.92846                  22201439.6444
     -2802.5684
  22833537.8234  -12642169.49547  -9842333.99246                  22833536.0644
      2229.6784
  23418276.7634  -11986651.83147  -9334163.39344                  23418274.7484
     -3068.4184
 06  6 27 22 32  0.0000000  0  9G 2G27G29G 4G10G24G17G 8G13
  21680688.0984  -17155541.14848 -13363031.70046                  21680683.1614
      2735.5134
  22637904.6024  -11248237.54647  -8760397.22546                  22637904.9794
       423.4334
  23117745.2114   -4489177.06746  -3926301.35643                  23117742.5544
      3359.8344
  20875350.9894  -23216239.26748 -18084645.09147                  20875349.1524
       959.8344
  22852900.7724   -8042883.34546  -7595454.53145                  22852898.0124
       954.0284
  21723366.5104  -16184705.57148 -13935531.19546                  21723364.3034
      -181.6994
  22217461.0914  -18185391.78548 -14156471.47746                  22217457.6894
     -2808.9994
  22820823.1804  -12708983.77147  -9894397.06046                  22820821.3724
      2224.6484
  23435806.4924  -11894536.56047  -9262385.37044                  23435804.2374
     -3072.6374
 06  6 27 22 32 30.0000000  0  9G 2G27G29G 4G10G24G17G 8G13
  21665083.7704  -17237541.09248 -13426927.75247                  21665078.9504
      2731.1134
  22635522.7454  -11260753.24347  -8770149.70545                  22635518.8084
       410.9334
  23098593.4584   -4589818.94946  -4004723.63844                  23098590.6214
      3349.5174
  20869897.4734  -23244897.65648 -18106976.31247                  20869895.7534
       950.6254
  22847462.5544   -8071462.54046  -7617724.05745                  22847459.8424
       951.3484
  21724433.7404  -16179097.21548 -13931161.03346                  21724431.9244
      -192.2514
  22233515.2414  -18101025.22047 -14090731.35046                  22233512.7094
     -2815.5134
  22808138.9384  -12775641.28847  -9946337.99646                  22808136.2394
      2219.1804
  23453357.8344  -11802297.47446  -9190510.83444                  23453356.2044
     -3076.7144
 06  6 27 22 33  0.0000000  0  9G 2G27G29G 4G10G24G17G 8G13
  21649506.1174  -17319402.65948 -13490715.96446                  21649500.7774
      2726.4794
  22633214.5284  -11272883.88147  -8779602.13545                  22633210.2644
       398.0474
  23079501.6674   -4690145.12546  -4082899.86743                  23079498.9424
      3339.0724
  20864498.7614  -23273269.38748 -18129084.16947                  20864495.8514
       941.0794
  22842040.6094   -8099958.11446  -7639928.42745                  22842037.5104
       948.5504
  21725562.7774  -16173165.84248 -13926539.17846                  21725560.5294
      -203.0274
  22249607.8144  -18016459.63748 -14024836.15046                  22249605.1614
     -2822.0264
  22795486.4434  -12842130.21047  -9998147.54546                  22795483.8484
      2213.5504
  23470934.8504  -11709928.97047  -9118535.47445                  23470933.3704
     -3081.0304
 06  6 27 22 33 30.0000000  0  9G 2G27G29G 4G10G24G17G 8G13
  21633955.5294  -17401123.31548 -13554394.38347                  21633950.2804
      2721.7044
  22630979.4584  -11284628.29048  -8788753.61546                  22630977.7914
       385.0494
  23060470.7264   -4790153.34746  -4160828.31543                  23060468.1424
      3328.3594
  20859154.6034  -23301352.51148 -18150967.13947                  20859152.3324
       931.3094
  22836633.1744   -8128371.44646  -7662068.65545                  22836630.8614
       945.8254
  21726753.3964  -16166909.95148 -13921664.47746                  21726751.2504
      -213.8964
  22265737.1754  -17931698.13447 -13958788.27546                  22265734.6464
     -2828.5994
  22782866.6534  -12908447.85047 -10049823.62446                  22782864.6894
      2207.7104
  23488536.9844  -11617433.68347  -9046461.33245                  23488535.1534
     -3085.2104
 06  6 27 22 34  0.0000000  0  9G 2G27G29G 4G10G24G17G 8G13
  21618430.8774  -17482703.00548 -13617962.96147                  21618425.7754
      2717.1394
  22628818.3344  -11295987.30947  -8797604.81046                  22628816.4584
       372.4664
  23041500.4424   -4889843.63246  -4238509.06344                  23041497.6274
      3317.8914
  20853865.6764  -23329147.14448 -18172625.31447                  20853863.4544
       921.9094
  22831241.2594   -8156705.90747  -7684147.43845                  22831238.9684
       943.3744
  21728005.1224  -16160330.32748 -13916537.49946                  21728003.6014
      -224.5754
  22281903.2904  -17846745.51647 -13892591.47646                  22281900.8554
     -2834.6924
  22770279.5034  -12974593.43847 -10101365.64946                  22770277.5614
      2202.1294
  23506161.3984  -11524816.36546  -8974292.07444                  23506160.0294
     -3089.0774
 06  6 27 22 34 30.0000000  0  9G 2G27G29G 4G10G24G17G 8G13
  21602934.7484  -17564138.66148 -13681419.29747                  21602929.7334
      2712.0904
  22626730.2864  -11306959.24047  -8806154.35946                  22626727.7124
       359.2194
  23022590.8544   -4989213.64446  -4315940.20144                  23022588.2044
      3306.8854
  20848631.8194  -23356651.38248 -18194057.20547                  20848629.2554
       911.9144
  22825863.3524   -8184962.74347  -7706165.75745                  22825862.0304
       940.5084
  21729318.9404  -16153425.85648 -13911157.40746                  21729316.7834
      -235.6934
  22298104.9764  -17761604.62147 -13826247.97746                  22298103.1584
     -2841.2164
  22757725.2704  -13040563.70547 -10152771.05646                  22757723.4414
      2196.0014
  23523808.2914  -11432079.64146  -8902029.80744                  23523807.0184
     -3093.2764
 06  6 27 22 35  0.0000000  0  9G 2G27G29G 4G10G24G17G 8G13
  21587465.3294  -17645431.45848 -13744764.33347                  21587460.2334
      2707.4564
  22624715.7594  -11317546.31247  -8814404.04246                  22624713.9544
       346.6064
  23003742.1814   -5088265.05147  -4393123.06944                  23003739.3164
      3296.4894
  20843452.7864  -23383866.78148 -18215264.03047                  20843450.3174
       902.4664
  22820501.0664   -8213146.62047  -7728127.22145                  22820498.8434
       938.3984
  21730694.1474  -16146198.58448 -13905525.76946                  21730692.2904
      -246.2064
  22314341.7794  -17676281.93347 -13759762.83146                  22314338.7604
     -2846.9684
  22745205.1354  -13106359.34747 -10204040.40746                  22745203.0624
      2190.2984
  23541477.8224  -11339229.85846  -8829679.44145                  23541475.4944
     -3096.6314
 06  6 27 22 35 30.0000000  0  9G 2G27G29G 4G10G24G17G 8G13
  21572023.5714  -17726576.83848 -13807994.48647                  21572018.5544
      2702.3544
  22622774.9534  -11327745.22847  -8822351.25446                  22622773.1854
       333.4334
  22984954.7814   -5186993.35446  -4470054.20144                  22984951.8684
      3285.5134
  20838329.7994  -23410789.17648 -18236242.53347                  20838326.5774
       892.5104
  22815151.4834   -8241256.57847  -7750031.08945                  22815148.9514
       935.8154
  21732131.5484  -16138645.13147 -13899639.95446                  21732129.9594
      -257.2664
  22330612.6954  -17590778.56548 -13693136.87746                  22330609.4894
     -2853.1404
  22732718.6114  -13171975.53047 -10255169.88046                  22732716.3254
      2184.1854
  23559168.0374  -11246267.57246  -8757241.42244                  23559166.7364
     -3100.6054
 06  6 27 22 36  0.0000000  0  9G 2G27G29G 4G10G24G17G 8G13
  21556610.6624  -17807571.89948 -13871107.53047                  21556605.6394
      2697.3784
  22620908.5734  -11337554.20048  -8829994.61746                  22620906.5454
       320.4744
  22966228.9774   -5285396.17046  -4546731.67344                  22966226.6704
      3274.6434
  20833262.4514  -23437416.74848 -18256991.30547                  20833260.2544
       882.6814
  22809816.7214   -8269293.52547  -7771878.03245                  22809813.6964
       933.4424
  21733631.3784  -16130763.85947 -13893498.72046                  21733629.6874
      -268.1594
  22346917.4064  -17505097.05647 -13626372.12246                  22346914.2984
     -2859.0044
  22720267.6424  -13237408.94847 -10306156.98746                  22720265.2834
      2178.0474
  23576879.2194  -11153195.01046  -8684717.45444                  23576877.4894
     -3104.1414
 06  6 27 22 36 30.0000000  0  9G 2G27G29G 4G10G24G17G 8G13
  21541226.0234  -17888419.79048 -13934105.85947                  21541220.4494
      2692.5984
  22619114.3944  -11346977.98047  -8837337.81146                  22619113.0944
       307.8374
  22947564.7884   -5383477.08147  -4623158.38044                  22947561.4214
      3264.0974
  20828250.6874  -23463753.04248 -18277513.09947                  20828247.7404
       873.1744
  22804493.5794   -8297264.64747  -7793673.70445                  22804491.3184
       931.4404
  21735192.5624  -16122559.45748 -13887105.69946                  21735191.2274
      -278.6824
  22363254.0184  -17419245.90947 -13559475.19346                  22363251.3044
     -2864.2924
  22707849.7524  -13302662.32647 -10357003.76946                  22707848.1494
      2172.2174
  23594609.5104  -11060020.41846  -8612113.99344                  23594607.6594
     -3107.3004
 06  6 27 22 37  0.0000000  0  9G 2G27G29G 4G10G24G17G 8G13
  21525869.7474  -17969116.62148 -13996986.50747                  21525864.7134
      2687.4074
  22617395.6824  -11356013.95248  -8844378.83946                  22617393.9364
       294.8004
  22928962.1654   -5481233.10446  -4699331.88344                  22928959.6164
      3253.1204
  20823295.1374  -23489795.13548 -18297805.66747                  20823292.2274
       863.2134
  22799183.4534   -8325169.91447  -7815418.06945                  22799181.0564
       929.1804
  21736816.1764  -16114029.21148 -13880458.77546                  21736813.6564
      -289.7514
  22379622.9574  -17333226.90647 -13492447.45746                  22379620.2574
     -2870.0194
  22695467.8884  -13367731.48547 -10407707.01846                  22695465.6424
      2165.9724
  23612358.5194  -10966745.64846  -8539432.48944                  23612357.1834
     -3110.8014
 06  6 27 22 37 30.0000000  0  9G 2G27G29G 4G10G24G17G 8G13
  21510543.7334  -18049654.88848 -14059743.57147                  21510538.3594
      2681.8904
  22615750.8554  -11364655.90048  -8851112.83946                  22615748.9844
       281.5094
  22910424.1064   -5578656.88746  -4775246.49044                  22910420.7954
      3241.8754
  20818396.9744  -23515535.70048 -18317863.25947                  20818394.5284
       852.9394
  22793886.6284   -8353005.60047  -7837108.20245                  22793884.1274
       926.6064
  21738502.3324  -16105166.66748 -13873552.90446                  21738500.7684
      -301.0064
  22396024.6664  -17247037.85947 -13425287.22546                  22396021.6074
     -2875.7374
  22683122.4304  -13432608.74748 -10458260.73446                  22683119.7254
      2159.3364
  23630128.8404  -10873368.23146  -8466670.96144                  23630126.9304
     -3114.2294
 06  6 27 22 38  0.0000000  0  9G 2G27G29G 4G10G24G17G 8G13
  21495248.3584  -18130032.33148 -14122375.33546                  21495243.3114
      2676.6554
  22614181.6704  -11372902.96648  -8857539.11746                  22614179.9484
       268.3894
  22891947.8174   -5675746.54046  -4850900.76844                  22891944.1074
      3230.8744
  20813556.1044  -23540973.64048 -18337685.04647                  20813553.2394
       842.9154
  22788602.5074   -8380773.00547  -7858745.12445                  22788600.7504
       924.4784
  21740252.2094  -16095971.20948 -13866387.62946                  21740250.0694
      -312.0904
  22412457.3534  -17160682.20747 -13357997.16446                  22412454.2914
     -2881.2654
  22670813.0204  -13497291.37447 -10508662.77746                  22670811.1014
      2152.8324
  23647916.0724  -10779890.89946  -8393831.57044                  23647915.4204
     -3117.5444
 06  6 27 22 38 30.0000000  0  9G 2G27G29G 4G10G24G17G 8G13
  21479984.0434  -18210247.95148 -14184881.01546                  21479978.3764
      2671.1964
  22612687.3374  -11380755.57148  -8863658.03446                  22612685.9484
       255.2004
  22873535.1884   -5772501.98046  -4926294.62643                  22873532.8154
      3219.6534
  20808773.2394  -23566108.57148 -18357270.71247                  20808770.3294
       832.7784
  22783331.7854   -8408475.16847  -7880331.21645                  22783328.8104
       922.3344
  21742065.1224  -16086443.48148 -13858963.42946                  21742063.8674
      -323.1014
  22428920.9934  -17074164.49247 -13290580.82346                  22428918.2544
     -2886.5684
  22658541.9084  -13561777.98347 -10558912.08246                  22658539.8414
      2146.2994
  23665723.1544  -10686318.24946  -8320917.95343                  23665720.8684
     -3120.7234
 06  6 27 22 39  0.0000000  0  9G 2G27G29G 4G10G24G17G 8G13
  21464749.0524  -18290309.32548 -14247266.48946                  21464743.4624
      2665.9774
  22611266.5554  -11388222.54748  -8869476.46446                  22611264.9504
       242.3004
  22855185.2014   -5868931.08846  -5001434.15744                  22855182.4774
      3208.6824
  20804046.2754  -23590948.73448 -18376626.70147                  20804043.7204
       822.8814
  22778069.8714   -8436123.34947  -7901875.24445                  22778068.1414
       920.5814
  21743940.3154  -16076592.38348 -13851287.27046                  21743938.0854
      -333.9404
  22445413.1284  -16987498.04047 -13223048.59046                  22445410.7344
     -2891.5284
  22646306.7924  -13626076.01548 -10609014.43746                  22646304.3554
      2139.8974
  23683544.9424  -10592663.09246  -8247939.98644                  23683543.6344
     -3123.2864
 06  6 27 22 39 30.0000000  0  9G 2G27G29G 4G10G24G17G 8G13
  21449546.2004  -18370200.49648 -14309519.34047                  21449540.4474
      2660.0544
  22609921.4394  -11395289.52947  -8874983.20246                  22609919.5104
       228.7264
  22836901.0674   -5965018.55646  -5076307.48744                  22836898.0404
      3196.9874
  20799378.3894  -23615478.62848 -18395740.92247                  20799375.2244
       812.3784
  22772821.1894   -8463705.62947  -7923367.91245                  22772819.4094
       918.1844
  21745878.4094  -16066403.20248 -13843347.68046                  21745876.9914
      -345.4154
  22461936.1784  -16900671.98947 -13155391.99446                  22461932.6814
     -2897.0024
  22634109.8484  -13690168.95047 -10658956.98146                  22634107.4234
      2132.8174
  23701385.3464  -10498914.11647  -8174888.95444                  23701383.7414
     -3126.7774
 06  6 27 22 40  0.0000000  0 10G 2G27G29G26G 4G10G24G17G 8G13
  21434376.8164  -18449916.25648 -14371635.51546                  21434371.1474
      2654.1904
  22608653.3464  -11401952.87347  -8880175.42846                  22608651.5314
       215.2934
  22818682.1524   -6060759.80646  -5150911.04944                  22818678.9694
      3185.4984
  24319962.7074     -50450.30445
      3881.1724
  20794770.2524  -23639694.33148 -18414610.31047                  20794767.3234
       801.9194
  22767584.9944   -8491220.90547  -7944808.38145                  22767583.1734
       916.0604
  21747882.7564  -16055872.24648 -13835141.76046                  21747881.2254
      -356.8024
  22478488.4984  -16813686.87747 -13087611.44746                  22478485.6944
     -2902.2124
  22621953.5784  -13754051.52748 -10708735.62246                  22621951.3214
      2125.7424
  23719242.1124  -10405071.87346  -8101765.24643                  23719241.1504
     -3129.6884
 06  6 27 22 40 30.0000000  0 10G 2G27G29G26G 4G10G24G17G 8G13
  21419239.6834  -18529459.94548 -14433617.58746                  21419234.5654
      2648.5164
  22607460.9784  -11408217.32447  -8885056.81346                  22607459.1624
       202.1534
  22800527.8734   -6156158.79746  -5225247.95044                  22800525.1534
      3174.1314
  24297821.6794
      3874.5654
  20790221.3894  -23663599.76148 -18433237.94646                  20790218.4204
       791.6164
  22762360.7204   -8518676.14147  -7966202.06145                  22762358.2334
       914.2684
  21749951.0294  -16045004.23948 -13826673.21146                  21749949.0434
      -367.9694
  22495069.7504  -16726551.21347 -13019713.60046                  22495067.0234
     -2907.0954
  22609836.1924  -13817726.45047 -10758352.43946                  22609834.5934
      2118.9754
  23737116.5004  -10311144.63347  -8028575.27843                  23737114.5444
     -3132.3394
 06  6 27 22 41  0.0000000  0  9G 2G27G29G 4G10G24G17G 8G13
  21404136.2764  -18608828.82748 -14495463.47446                  21404130.8604
      2642.8124
  22606345.2904  -11414081.25547  -8889626.12746                  22606343.7654
       188.8534
  22782439.5574   -6251213.01446  -5299316.12744                  22782436.9654
      3162.8764
  20785731.7144  -23687192.58548 -18451621.98246                  20785729.0084
       781.2504
  22757147.6294   -8546071.90947  -7987549.42045                  22757144.0744
       912.3634
  21752083.4164  -16033797.70348 -13817940.87246                  21752082.1364
      -379.1114
  22511679.0834  -16639268.12747 -12951700.87846                  22511676.7414
     -2911.7824
  22597759.7714  -13881190.45247 -10807804.90846                  22597757.2854
      2112.0614
  23755005.3964  -10217134.61047  -7955320.84043                  23755004.2864
     -3134.8884
 06  6 27 22 41 30.0000000  0  9G 2G27G29G 4G10G24G17G 8G13
  21389067.6774  -18688018.42248 -14557169.64746                  21389061.6224
      2636.3624
  22605306.8514  -11419541.80847  -8893881.10946                  22605304.5854
       175.0054
  22764417.9934   -6345918.70946  -5373112.77244                  22764415.5034
      3150.8594
  20781302.3674  -23710469.03448 -18469759.49047                  20781299.6584
       770.3324
  22751945.1704   -8573407.63047  -8008849.97945                  22751942.3244
       909.9024
  21754281.0474  -16022249.65348 -13808942.44246                  21754279.3544
      -390.8894
  22528316.6914  -16551838.39047 -12883573.88346                  22528313.5094
     -2917.0224
  22585724.2904  -13944438.83948 -10857089.38046                  22585722.0474
      2104.4044
  23772912.0994  -10123043.01047  -7882002.78043                  23772909.1884
     -3137.9694
 06  6 27 22 42  0.0000000  0  9G 2G27G29G 4G10G24G17G 8G13
  21374033.1214  -18767023.56148 -14618732.07346                  21374027.7054
      2630.4404
  22604344.2144  -11424595.88447  -8897819.36346                  22604343.2074
       161.6994
  22746463.6864   -6440272.03246  -5446634.85045                  22746460.5894
      3139.2534
  20776934.1674  -23733425.51848 -18487647.68446                  20776930.7834
       759.8974
  22746754.9274   -8600682.59347  -8030103.18345                  22746752.6174
       908.1934
  21756543.9004  -16010357.26948 -13799675.67846                  21756542.4394
      -402.1094
  22544981.6354  -16464262.98547 -12815333.36846                  22544978.3354
     -2921.5624
  22573730.1564  -14007466.93947 -10906202.17646                  22573727.9064
      2097.2714
  23790831.8554  -10028870.21647  -7808621.46243                  23790829.6124
     -3140.3134
 06  6 27 22 42 30.0000000  0  9G 2G27G29G 4G10G24G17G 8G13
  21359033.2464  -18845848.77947 -14680154.31446                  21359027.3774
      2624.4734
  22603459.0494  -11429249.21847  -8901445.34146                  22603457.7504
       148.3454
  22728575.1674   -6534277.65746  -5519885.95844                  22728571.7374
      3127.6664
  20772625.5854  -23756066.90648 -18505290.35146                  20772622.5744
       749.3904
  22741575.1634   -8627904.97747  -8051315.43045                  22741572.7834
       906.5584
  21758871.3044  -15998126.29947 -13790145.08346                  21758870.0684
      -413.3694
  22561672.8824  -16376551.43947 -12746986.78346                  22561670.1254
     -2925.9764
  22561777.5444  -14070278.78547 -10955146.45946                  22561775.6804
      2090.0934
  23808765.5294   -9934625.84147  -7735184.38244                  23808763.6954
     -3142.5984
 06  6 27 22 43  0.0000000  0 10G 2G27G29G26G 4G10G24G17G 8G13
  21344067.4564  -18924495.35148 -14741437.34646                  21344062.0234
      2618.5204
  22602649.8434  -11433504.61947  -8904761.24646                  22602647.9104
       135.2104
  22710751.8294   -6627937.81746  -5592867.89045                  22710749.5564
      3116.1774
  24187707.3804    -158420.75944
      3840.2784
  20768376.5204  -23778395.54248 -18522689.30746                  20768373.3824
       738.9214
  22736404.1294   -8655079.64947  -8072490.46845                  22736401.8554
       905.0394
  21761263.1004  -15985559.23348 -13780352.60146                  21761261.8304
      -424.5364
  22578388.3894  -16288710.94947 -12678539.68146                  22578385.8784
     -2930.1814
  22549866.0664  -14132874.99147 -11003922.72746                  22549863.2594
      2082.9154
  23826712.7824   -9840315.78547  -7661696.13244                  23826710.8884
     -3144.7564
 06  6 27 22 43 30.0000000  0  9G 2G27G29G 4G10G24G17G 8G13
  21329137.8824  -19002950.76348 -14802571.43146                  21329131.9084
      2611.9044
  22601917.8634  -11437351.38747  -8907758.74146                  22601916.0154
       121.4604
  22692996.6074   -6721240.64646  -5665571.39744                  22692993.7784
      3104.0574
  20764189.6354  -23800399.55348 -18539835.32146                  20764186.1984
       727.9644
  22731243.4994   -8682198.06847  -8093621.69345                  22731240.6314
       902.9884
  21763720.2424  -15972645.40848 -13770289.92246                  21763718.9884
      -436.2794
  22595129.8924  -16200734.37147 -12609986.57246                  22595127.4304
     -2934.8684
  22537997.4914  -14195243.03547 -11052521.20346                  22537995.2234
      2075.0784
  23844673.6164   -9745932.85647  -7588151.09143                  23844670.9724
     -3147.2764
 06  6 27 22 44  0.0000000  0  9G 2G27G29G 4G10G24G17G 8G13
  21314244.8544  -19081214.16548 -14863555.89646                  21314238.9994
      2605.6104
  22601262.7814  -11440790.48847  -8910438.57546                  22601260.7624
       107.8614
  22675309.5314   -6814186.15146  -5737996.40744                  22675307.1484
      3092.2074
  20760063.7164  -23822079.04548 -18556728.44947                  20760060.6644
       717.2754
  22726093.1164   -8709263.46047  -8114711.57545                  22726090.3174
       901.2604
  21766243.5804  -15959385.36048 -13759957.43446                  21766242.0574
      -447.7644
  22611895.9554  -16112626.45047 -12541331.09846                  22611893.7984
     -2939.0874
  22526173.1024  -14257381.62247 -11100940.87146                  22526170.7014
      2067.4124
  23862647.3114   -9651481.75947  -7514552.86043                  23862644.3834
     -3149.3164
 06  6 27 22 44 30.0000000  0  9G 2G27G29G 4G10G24G17G 8G13
  21299388.5644  -19159284.62948 -14924390.02447                  21299383.0944
      2599.2194
  22600686.1354  -11443822.30447  -8912801.04246                  22600684.0894
        94.3654
  22657690.4714   -6906773.85047  -5810142.68144                  22657688.2854
      3080.4394
  20756000.3234  -23843433.75048 -18573368.50147                  20755997.2414
       706.4944
  22720952.3474   -8736278.42647  -8135762.19545                  22720949.3074
       899.8104
  21768832.8504  -15945779.65348 -13749355.61546                  21768830.8874
      -459.1854
  22628686.3334  -16024391.58547 -12472576.72846                  22628683.8314
     -2943.1694
  22514392.3634  -14319289.84547 -11149181.05746                  22514390.1384
      2059.8884
  23880632.6394   -9556966.53946  -7440904.76544                  23880631.5534
     -3151.3964
 06  6 27 22 45  0.0000000  0  9G 2G27G29G 4G10G24G17G 8G13
  21284568.4654  -19237164.80248 -14985075.86347                  21284562.6784
      2592.7104
  22600186.5264  -11446451.34247  -8914849.63646                  22600184.3404
        80.8404
  22640139.4444   -6999007.32447  -5882012.82944                  22640136.5824
      3068.4774
  20751997.6564  -23864467.31548 -18589758.31246                  20751994.5494
       695.6884
  22715819.9574   -8763249.29147  -8156778.42345                  22715817.8454
       898.3404
  21771487.0024  -15931832.93648 -13738488.06646                  21771485.3114
      -470.6104
  22645499.6504  -15936038.07047 -12403729.88646                  22645496.8494
     -2947.0854
  22502654.9084  -14380970.04547 -11197243.53346                  22502652.9144
      2052.1094
  23898628.8534   -9462394.87247  -7367212.68243                  23898626.9214
     -3153.3744
 06  6 27 22 45 30.0000000  0  9G 2G27G29G 4G10G24G17G 8G13
  21269785.4684  -19314849.41248 -15045609.32347                  21269779.9694
      2586.3044
  22599763.1064  -11448674.19547  -8916581.74546                  22599761.3314
        67.4074
  22622656.0794   -7090882.14047  -5953603.60845                  22622653.3074
      3056.6074
  20748057.1534  -23885175.25348 -18605894.40047                  20748054.3624
       684.9564
  22710696.0164   -8790174.89847  -8177759.41645                  22710693.5334
       896.9534
  21774206.6294  -15917541.46248 -13727351.88246                  21774204.6684
      -482.0464
  22662335.7304  -15847566.53547 -12334791.08246                  22662332.9304
     -2950.7774
  22490962.1754  -14442416.67047 -11245124.03546                  22490960.4314
      2044.4194
  23916635.9104   -9367767.15847  -7293476.90944                  23916634.8654
     -3154.9954
 06  6 27 22 46  0.0000000  0  9G 2G27G29G 4G10G24G17G 8G13
  21255041.2434  -19392330.20748 -15105983.95947                  21255035.6514
      2579.5464
  22599418.1674  -11450483.90447  -8917991.90146                  22599415.7364
        53.7354
  22605242.3624   -7182390.61147  -6024908.88645                  22605240.0084
      3044.4334
  20744179.6454  -23905550.26448 -18621771.04247                  20744177.1114
       673.9264
  22705581.9054   -8817050.66147  -8198701.52945                  22705578.9354
       895.2934
  21776992.8094  -15902898.49948 -13715941.79046                  21776991.1084
      -493.6474
  22679194.7394  -15758974.16747 -12265758.12646                  22679191.8774
     -2954.7364
  22479315.1184  -14503621.21148 -11292815.87846                  22479312.8774
      2036.3964
  23934654.2244   -9273079.90847  -7219694.78944                  23934652.8254
     -3156.9924
 06  6 27 22 46 30.0000000  0  9G 2G27G29G 4G10G24G17G 8G13
  21240336.1354  -19469606.65248 -15166199.36647                  21240330.4024
      2572.4124
  22599152.4034  -11451882.36447  -8919081.63046                  22599150.9074
        39.6834
  22587899.0924   -7273533.35347  -6095929.18145                  22587895.2514
      3031.9244
  20740365.8954  -23925593.06948 -18637388.82547                  20740363.3064
       662.4274
  22700476.2334   -8843880.18047  -8219607.64145                  22700474.3554
       893.4964
  21779846.2254  -15887905.29248 -13704258.78446                  21779844.4144
      -505.6694
  22696075.1044  -15670265.90147 -12196634.87246                  22696072.0304
     -2958.8964
  22467714.1184  -14564583.12948 -11340318.66146                  22467712.5284
      2027.9254
  23952683.1374   -9178338.17646  -7145870.17644                  23952681.9324
     -3159.0484
 06  6 27 22 47  0.0000000  0 10G 2G27G29G26G 4G10G24G17G 8G13
  21225671.1074  -19546671.14948 -15226249.61947                  21225665.6614
      2565.3524
  22598965.9364  -11452863.05947  -8919845.80846                  22598963.9164
        25.7624
  22570625.8114   -7364303.33847  -6166659.00645                  22570623.1254
      3019.4874
  24013632.1324     -34796.94855
      3781.5634
  20736616.6714  -23945296.39748 -18652742.08247                  20736613.9884
       651.1574
  22695380.0894   -8870659.61247  -8240474.71745                  22695377.5204
       891.8164
  21782767.2174  -15872555.69648 -13692298.08246                  21782765.2154
      -517.5394
  22712978.0664  -15581439.24247 -12127419.34546                  22712975.3174
     -2962.8174
  22456161.3114  -14625294.34147 -11387626.10246                  22456159.4524
      2019.6004
  23970723.9104   -9083539.09246  -7072000.89843                  23970721.9984
     -3160.9284
 06  6 27 22 47 30.0000000  0 10G 2G27G29G26G 4G10G24G17G 8G13
  21211046.3904  -19623526.10748 -15286136.60047                  21211040.9624
      2558.2674
  22598857.6884  -11453431.05547  -8920288.40946                  22598855.3734
        12.1244
  22553423.2524   -7454704.53047  -6237101.46245                  22553420.1604
      3007.1584
  23992067.2464    -148129.14245
      3773.7944
  20732930.5324  -23964664.28148 -18667833.96646                  20732928.0734
       639.9224
  22690291.8674   -8897395.49847  -8261307.89245                  22690290.1644
       890.4394
  21785755.5064  -15856854.21948 -13680063.17946                  21785753.8854
      -529.2974
  22729901.7084  -15492503.02947 -12058118.46946                  22729899.0894
     -2966.3334
  22444655.5854  -14685757.49848 -11434740.26146                  22444653.6504
      2011.2114
  23988772.6074   -8988690.87546  -6998093.35544                  23988771.1824
     -3162.4564
 06  6 27 22 48  0.0000000  0 10G 2G27G29G26G 4G10G24G17G 8G13
  21196459.9294  -19700177.77048 -15345865.17747                  21196454.0074
      2551.4164
  22598826.8414  -11453593.87047  -8920415.29246                  22598824.9654
        -1.5774
  22536288.5754   -7544743.60547  -6307261.78545                  22536286.5454
      2995.0204
  23970543.4704    -261237.57045
      3766.2214
  20729307.5374  -23983703.66648 -18682669.86646                  20729304.9244
       628.9364
  22685211.3724   -8924097.49547  -8282114.62045                  22685208.0384
       889.2824
  21788808.4334  -15840808.86148 -13667560.32046                  21788806.7764
      -540.8014
  22746844.6854  -15403468.64147 -11988741.07546                  22746842.0144
     -2969.6484
  22433195.5534  -14745978.61548 -11481665.79846                  22433193.6044
      2003.0084
  24006828.9864   -8893804.56146  -6924156.05244                  24006827.6654
     -3163.7454
 06  6 27 22 48 30.0000000  0 10G 2G27G29G26G 4G10G24G17G 8G13
  21181914.9214  -19776613.10948 -15405425.16847                  21181909.0084
      2544.2634
  22598874.8434  -11453339.95647  -8920217.44146                  22598873.5124
       -15.3224
  22519225.9904   -7634408.29447  -6377130.36845                  22519222.7284
      2982.7054
  23949064.6174    -374109.29545
      3758.4424
  20725749.4704  -24002402.23748 -18697240.19746                  20725746.4634
       617.6374
  22680137.9094   -8950756.58447  -8302887.93545                  22680135.8744
       887.9694
  21791929.1004  -15824408.16348 -13654780.57446                  21791927.7354
      -552.5244
  22763807.3084  -15314328.70047 -11919281.43946                  22763804.7784
     -2973.0234
  22421784.9064  -14805944.34648 -11528392.31746                  22421782.6224
      1994.6244
  24024893.6854   -8798871.95346  -6850182.77943                  24024892.5664
     -3165.1124
 06  6 27 22 49  0.0000000  0 10G 2G27G29G26G 4G10G24G17G 8G13
  21167410.4224  -19852834.16848 -15464818.19247                  21167404.7394
      2537.0224
  22599002.3394  -11452673.17447  -8919697.88846                  22599000.5534
       -29.2294
  22502234.7604   -7723701.41647  -6446709.35945                  22502232.4284
      2970.1664
  23927630.2964    -486746.42246
      3750.6644
  20722255.9134  -24020763.04948 -18711547.34447                  20722252.8694
       606.2894
  22675071.6364   -8977378.22547  -8323632.09045                  22675069.5714
       886.6944
  21795117.1624  -15807655.64048 -13641726.68346                  21795115.5954
      -564.3654
  22780789.3954  -15225090.07347 -11849744.90846                  22780786.6264
     -2976.2944
  22410422.5514  -14865656.20447 -11574921.04946                  22410419.7284
      1986.1384
  24042966.6084   -8703900.10246  -6776178.87644                  24042965.4014
     -3166.5244
 06  6 27 22 49 30.0000000  0 10G 2G27G29G26G 4G10G24G17G 8G13
  21152948.6704  -19928831.08448 -15524036.56947                  21152942.9394
      2529.3654
  22599209.1274  -11451586.03248  -8918850.77646                  22599207.2304
       -43.3544
  22485315.0344   -7812614.33447  -6515992.18645                  22485312.2424
      2957.3734
  23906241.8644    -599140.03546   -785393.87253                  23906241.8594
      3742.4614
  20718827.6024  -24038777.31448 -18725584.44046                  20718824.9724
       594.6444
  22670013.5804   -9003956.75747  -8344342.64445                  22670012.0344
       885.1514
  21798373.6704  -15790543.43548 -13628392.51846                  21798372.0184
      -576.4994
  22797789.9354  -15135749.29447 -11780128.77646                  22797787.7244
     -2979.7364
  22399109.5294  -14925104.82047 -11621244.64846                  22399107.1484
      1977.1344
  24061047.8094   -8608885.20146  -6702141.39344                  24061045.8604
     -3168.0034
 06  6 27 22 50  0.0000000  0 10G 2G27G29G26G 4G10G24G17G 8G13
  21138529.8024  -20004602.29748 -15583079.06847                  21138524.6694
      2522.0704
  22599495.7614  -11450078.79147  -8917676.31746                  22599494.1904
       -57.0904
  22468468.0054   -7901146.18047  -6584978.02245                  22468465.1964
      2944.8974
  23884900.2624    -711288.63746   -872782.39142                  23884900.0564
      3734.4094
  20715465.4114  -24056444.39248 -18739351.00646                  20715463.1714
       583.3014
  22664964.8714   -9030494.28247  -8365021.23145                  22664962.0994
       884.0334
  21801698.6554  -15773071.64348 -13614778.15646                  21801696.8244
      -588.1984
  22814809.2634  -15046310.05247 -11710435.91946                  22814807.6164
     -2982.6764
  22387847.1484  -14984288.03347 -11667361.43246                  22387844.8814
      1968.5014
  24079134.8704   -8513830.16046  -6628072.69744                  24079134.9704
     -3168.9844
 06  6 27 22 50 30.0000000  0 10G 2G27G29G26G 4G10G24G17G 8G13
  21124153.4924  -20080150.24048 -15641947.59847                  21124148.0944
      2514.2484
  22599861.7734  -11448156.10147  -8916178.14546                  22599859.8034
       -71.3534
  22451692.5384   -7989300.89147  -6653670.01345                  22451689.5124
      2931.9924
  23863605.4824    -823195.26046   -959982.30941                  23863603.8764
      3725.8644
  20712169.0824  -24073768.08448 -18752850.00546                  20712166.0024
       571.4314
  22659920.8434   -9056997.32547  -8385672.96145                  22659918.5884
       882.5544
  21805090.7954  -15755245.02048 -13600887.32146                  21805089.0464
      -600.4004
  22831846.8114  -14956780.70747 -11640672.87846                  22831844.0154
     -2985.9964
  22376634.9224  -15043208.30647 -11713273.33246                  22376633.1994
      1959.2974
  24097230.3124   -8418742.94746  -6553978.94144                  24097229.9414
     -3170.2444
 06  6 27 22 51  0.0000000  0 10G 2G27G29G26G 4G10G24G17G 8G13
  21109820.4774  -20155471.91748 -15700639.80447                  21109814.7564
      2507.1394
  22600306.8324  -11445816.76047  -8914355.30446                  22600304.9664
       -84.8244
  22434989.5324   -8077076.27346  -6722066.40945                  22434987.1704
      2919.5654
  23842357.1184    -934857.18645  -1046991.57842                  23842355.4744
      3717.9204
  20708938.3244  -24090746.18148 -18766079.69846                  20708935.6384
       560.1424
  22654883.9064   -9083466.39847  -8406298.21045                  22654881.8524
       881.7774
  21808550.5884  -15737062.15848 -13586718.86746                  21808549.5064
      -611.9344
  22848900.4294  -14867163.74347 -11570841.51846                  22848898.1254
     -2988.5454
  22365473.4424  -15101862.64047 -11758977.98446                  22365471.2124
      1950.7424
  24115330.6344   -8323625.49547  -6479861.61044                  24115329.8784
     -3171.0164
 06  6 27 22 51 30.0000000  0 10G 2G27G29G26G 4G10G24G17G 8G13
  21095530.7304  -20230563.28548 -15759152.54747                  21095525.6834
      2499.1504
  22600831.6604  -11443058.60947  -8912206.09946                  22600830.1384
       -99.0044
  22418359.8614   -8164469.30347  -6790164.87845                  22418356.6294
      2906.6994
  23821156.1634   -1046270.87946  -1133807.44142                  23821153.9164
      3709.6044
  20705773.6544  -24107375.82548 -18779037.87546                  20705770.5354
       548.4034
  22649853.7584   -9109901.60747  -8426897.08445                  22649850.9584
       880.4784
  21812079.1234  -15718521.03548 -13572271.28346                  21812077.4074
      -624.0974
  22865970.9764  -14777460.57347 -11500943.03446                  22865968.4864
     -2991.5824
  22354362.9874  -15160246.62747 -11804472.01346                  22354361.3264
      1941.5774
  24133436.2574   -8228478.97646  -6405721.55644                  24133435.2744
     -3172.0314
 06  6 27 22 52  0.0000000  0 10G 2G27G29G26G 4G10G24G17G 8G13
  21081285.5174  -20305421.64248 -15817483.73447                  21081280.1484
      2491.4364
  22601436.3214  -11439880.80347  -8909729.92046                  22601434.8164
      -112.8614
  22401801.7664   -8251478.14647  -6857963.94845                  22401798.9914
      2893.9454
  23800001.3134   -1157433.65746  -1220427.80142                  23799999.5654
      3701.0644
  20702675.6974  -24123655.27348 -18791723.17846                  20702673.0794
       536.7874
  22644830.3554   -9136304.02047  -8447470.40345                  22644827.0444
       879.6394
  21815675.8194  -15699620.59948 -13557543.68746                  21815673.0194
      -635.9384
  22883056.3924  -14687673.72447 -11430979.32946                  22883053.6634
     -2994.1704
  22343305.0894  -15218357.36647 -11849753.09646                  22343302.9094
      1932.4664
  24151548.1564   -8133305.39947  -6331560.44143                  24151546.5454
     -3172.9104
 06  6 27 22 52 30.0000000  0 10G 2G27G29G26G 4G10G24G17G 8G13
  21067085.0974  -20380046.78348 -15875633.19647                  21067079.9804
      2483.7304
  22602120.6494  -11436285.47847  -8906928.38346                  22602118.8214
      -126.6314
  22385316.9024   -8338103.91747  -6925464.53845                  22385315.1184
      2881.1964
  23778895.4484   -1268346.42046  -1306853.28843                  23778893.5164
      3693.0424
  20699644.4084  -24139585.33748 -18804136.22747                  20699641.5834
       525.2834
  22639811.8654   -9162677.13847  -8468020.87645                  22639808.7804
       878.7264
  21819340.2384  -15680362.47148 -13542537.39046                  21819338.0984
      -647.8174
  22900156.8694  -14597808.63748 -11360954.66046                  22900154.5924
     -2996.6114
  22332299.0724  -15276194.74447 -11894821.17846                  22332297.0134
      1923.5064
  24169662.6304   -8038110.28646  -6257382.56843                  24169662.0494
     -3173.3644
 06  6 27 22 53  0.0000000  0 10G 2G27G29G26G 4G10G24G17G 8G13
  21052928.5734  -20454440.60648 -15933602.41247                  21052922.9124
      2475.9674
  22602882.9494  -11432276.72947  -8903804.70746                  22602881.5344
      -140.3764
  22368905.6764   -8424349.46547  -6992668.84345                  22368903.3634
      2868.6334
  23757836.6014   -1379011.13346  -1393085.42642                  23757834.9014
      3684.7514
  20696679.0814  -24155169.23647 -18816279.53646                  20696676.3084
       513.7844
  22634798.0854   -9189026.97647  -8488553.24345                  22634794.3334
       878.0714
  21823072.6244  -15660751.03447 -13527255.79046                  21823071.9864
      -659.5024
  22917271.3704  -14507872.96947 -11290874.98846                  22917269.1164
     -2998.8624
  22321344.2234  -15333760.71347 -11939677.76346                  22321342.6834
      1914.4294
  24187780.7764   -7942900.56246  -6183193.31343                  24187780.0784
     -3173.5604
 06  6 27 22 53 30.0000000  0 10G 2G27G29G26G 4G10G24G17G 8G13
  21038817.8704  -20528591.09848 -15991382.01347                  21038812.4644
      2467.6514
  22603726.9374  -11427844.09947  -8900350.72245                  22603724.9564
      -154.8344
  22352567.8624   -8510203.70747  -7059568.21945                  22352565.4194
      2855.3764
  23736827.9634   -1489416.05246  -1479115.25842                  23736825.5694
      3675.8844
  20693781.5354  -24170395.64747 -18828144.28846                  20693778.6294
       501.6064
  22629788.9314   -9215344.88947  -8509060.69445                  22629785.7484
       876.6944
  21826873.8894  -15640775.46048 -13511690.42446                  21826873.1354
      -671.8754
  22934400.6334  -14417860.13947 -11220735.16346                  22934397.7354
     -3001.6364
  22310444.5294  -15391043.39547 -11984313.61346                  22310442.2124
      1904.6634
  24205902.9154   -7847669.13246  -6108987.19443                  24205901.9064
     -3174.6194
 06  6 27 22 54  0.0000000  0 10G 2G27G29G26G 4G10G24G17G 8G13
  21024754.2264  -20602498.10548 -16048971.88547                  21024748.4204
      2459.4974
  22604650.5154  -11422989.76347  -8896568.14845                  22604648.3844
      -168.8134
  22336304.8324   -8595667.96547  -7126163.73045                  22336302.3344
      2842.3104
  23715867.7494   -1599561.68246  -1564942.98842                  23715865.8174
      3667.2124
  20690951.8464  -24185265.88648 -18839731.50446                  20690949.2444
       489.6924
  22624786.6544   -9241634.57647  -8529546.14645                  22624783.2054
       875.9284
  21830743.9344  -15620437.87648 -13495842.99246                  21830740.6394
      -683.8774
  22951543.3734  -14327775.53847 -11150539.45446                  22951540.3994
     -3003.8824
  22299597.2654  -15448042.44947 -12028728.44146                  22299595.7944
      1895.2154
  24224028.0984   -7752421.00946  -6034768.04243                  24224027.4104
     -3175.2054
 06  6 27 22 54 30.0000000  0 10G 2G27G29G26G 4G10G24G17G 8G13
  21010736.2794  -20676158.41348 -16106369.51547                  21010731.2434
      2451.1964
  22605654.6464  -11417712.64847  -8892456.13146                  22605653.0794
      -182.9254
  22320116.3634   -8680739.68247  -7192453.37445                  22320113.6404
      2829.1894
  23694958.0724   -1709445.11446  -1650566.47243                  23694954.9924
      3658.2964
  20688190.1864  -24199777.73848 -18851039.45946                  20688187.2814
       477.7294
  22619788.9554   -9267896.70147  -8550010.13545                  22619785.6764
       874.8294
  21834682.9444  -15599737.00448 -13479712.49446                  21834678.6394
      -696.0994
  22968698.1744  -14237621.59247 -11080289.71445                  22968696.8684
     -3006.2704
  22288805.6884  -15504754.20148 -12072919.41546                  22288803.5214
      1885.4984
  24242155.9804   -7657158.01546  -5960537.20743                  24242155.4204
     -3175.6744
 06  6 27 22 55  0.0000000  0 10G 2G27G29G26G 4G10G24G17G 8G13
  20996766.7784  -20749570.51448 -16163573.75447                  20996761.4114
      2442.9834
  22606739.2324  -11412013.16347  -8888014.99746                  22606738.0804
      -196.8464
  22304001.8424   -8765418.87447  -7258437.15045                  22303999.8174
      2816.2114
  23674097.8144   -1819065.41746  -1735984.73042                  23674095.2204
      3649.5804
  20685497.0204  -24213930.73748 -18862067.78746                  20685493.8804
       465.8544
  22614795.5474   -9294133.65047  -8570454.49445                  22614793.0814
       874.2144
  21838691.4234  -15578673.32448 -13463299.28846                  21838689.9074
      -708.1354
  22985866.7454  -14147402.20747 -11009988.95445                  22985864.6544
     -3008.2764
  22278068.9074  -15561177.06548 -12116885.27846                  22278066.5954
      1876.0604
  24260285.4194   -7561883.66846  -5886297.61743                  24260285.3124
     -3176.0264
 06  6 27 22 55 30.0000000  0 10G 2G27G29G26G 4G10G24G17G 8G13
  20982844.9714  -20822730.37548 -16220581.43547                  20982839.3774
      2434.4734
  22607904.8434  -11405889.51848  -8883243.35346                  22607902.7874
      -211.1334
  22287963.3914   -8849702.57747  -7324112.73245                  22287960.9654
      2802.9204
  23653287.6394   -1928419.05446  -1821195.32842                  23653285.2134
      3640.5664
  20682872.9324  -24227722.25348 -18872814.43546                  20682869.8134
       453.7654
  22609807.4204   -9320345.25347  -8590879.08845                  22609805.3364
       873.3204
  21842769.2374  -15557244.75048 -13446601.71846                  21842769.7514
      -720.2834
  23003046.7594  -14057118.82547 -10939638.33845                  23003045.2624
     -3010.3374
  22267387.5394  -15617307.48748 -12160623.25246                  22267385.5294
      1866.2064
  24278418.6304   -7466599.02646  -5812049.85942                  24278417.3204
     -3176.1824
 06  6 27 22 56  0.0000000  0 10G 2G27G29G26G 4G10G24G17G 8G13
  20968971.2774  -20895636.97148 -16277391.77047                  20968965.4504
      2425.4744
  22609150.9264  -11399343.03548  -8878142.23246                  22609148.8674
      -225.8114
  22271999.8084   -8933590.99447  -7389480.33145                  22271997.2674
      2789.1704
  23632529.7004   -2037505.66145  -1906197.81641                  23632526.8074
      3631.2554
  20680316.9574  -24241152.26248 -18883279.40146                  20680314.2924
       441.1284
  22604824.7114   -9346534.10447  -8611285.99845                  22604821.8374
       872.1094
  21846916.1144  -15535452.35648 -13429620.63946                  21846917.1794
      -733.0134
  23020238.8134  -13966776.29447 -10869241.62845                  23020236.9954
     -3012.9004
  22256762.3524  -15673143.98948 -12204132.23046                  22256760.5134
      1855.8204
  24296551.6464   -7371307.92246  -5737797.18742                  24296550.7814
     -3176.9004
 06  6 27 22 56 30.0000000  0 10G 2G27G29G26G 4G10G24G17G 8G13
  20955147.4674  -20968280.85348 -16333997.38447                  20955142.0274
      2417.2024
  22610478.6234  -11392366.24848  -8872705.78446                  22610476.3804
      -239.6484
  22256113.2634   -9017075.81347  -7454533.42245                  22256110.5264
      2776.2554
  23611823.9804   -2146316.01346  -1990984.99241                  23611821.5484
      3622.2854
  20677831.8764  -24254212.53248 -18893456.25746                  20677828.9214
       429.2684
  22599846.3074   -9372694.70447  -8631670.87545                  22599843.8774
       871.6654
  21851133.5684  -15513288.89348 -13412350.43446                  21851133.8204
      -744.8344
  23037442.6154  -13876370.56647 -10798795.69546                  23037440.8734
     -3014.3704
  22246194.5984  -15728677.44448 -12247405.03246                  22246192.4654
      1846.1774
  24314687.0444   -7276006.51745  -5663536.53743                  24314686.3564
     -3176.6894
 06  6 27 22 57  0.0000000  0 10G 2G27G29G26G 4G10G24G17G 8G13
  20941373.1724  -21040666.72948 -16390401.97247                  20941367.6334
      2408.5114
  22611886.9334  -11384966.20248  -8866939.53746                  22611884.8364
      -253.7604
  22240302.6604   -9100163.01247  -7519276.68145                  22240299.3604
      2762.8664
  23591169.7164   -2254855.48546  -2075561.12542                  23591167.0464
      3613.2964
  20675415.6914  -24266908.80848 -18903349.48246                  20675412.9904
       417.1634
  22594871.9844   -9398835.10247  -8652040.02245                  22594869.0394
       871.0354
  21855420.7274  -15490760.72748 -13394796.06146                  21855420.2784
      -756.9924
  23054656.7344  -13785911.66547 -10728308.32646                  23054654.3144
     -3016.1384
  22235683.5764  -15783912.50048 -12290445.33546                  22235681.4444
      1836.1964
  24332821.9854   -7180704.12546  -5589275.05843                  24332822.6974
     -3176.7824
 06  6 27 22 57 30.0000000  0 10G 2G27G29G26G 4G10G24G17G 8G13
  20927648.0814  -21112790.49048 -16446602.30247                  20927643.0314
      2399.6834
  22613376.0894  -11377141.18448  -8860842.12146                  22613373.7104
      -267.9444
  22224567.5644   -9182849.86847  -7583707.96945                  22224564.9054
      2749.4824
  23570567.2304   -2363120.33446  -2159923.33242                  23570563.1414
      3604.1754
  20673069.5774  -24279238.46848 -18912957.01746                  20673066.8794
       404.7954
  22589901.8364   -9424955.43847  -8672393.51745                  22589898.0854
       870.3524
  21859777.4114  -15467865.99548 -13376956.03846                  21859775.5794
      -769.3414
  23071880.6134  -13695400.84147 -10657780.49046                  23071879.0814
     -3017.9494
  22225230.4824  -15838844.69548 -12333249.64346                  22225228.9544
      1825.9574
  24350957.7164   -7085402.05646  -5515013.85343                  24350957.5164
     -3176.6464
 06  6 27 22 58  0.0000000  0 10G 2G27G29G26G 4G10G24G17G 8G13
  20913973.4784  -21184650.76148 -16502597.32647                  20913968.1004
      2390.9334
  22614945.9234  -11368891.75448  -8854414.02046                  22614943.7994
      -282.1244
  22208909.3554   -9265135.78447  -7647826.86145                  22208906.5524
      2736.1284
  23550017.3464   -2471109.59746  -2244070.78942                  23550014.1804
      3594.9224
  20670793.0114  -24291201.13348 -18922278.60147                  20670790.8684
       392.6324
  22584934.4384   -9451058.03647  -8692733.19645                  22584931.7464
       869.8684
  21864204.4344  -15444605.25748 -13358830.84146                  21864201.1764
      -781.4554
  23089112.9514  -13604842.66047 -10587215.75846                  23089111.0174
     -3019.3264
  22214835.2094  -15893472.99448 -12375817.14646                  22214832.9974
      1815.8844
  24369092.4994   -6990103.61746  -5440755.44343                  24369092.6364
     -3176.5774
 06  6 27 22 58 30.0000000  0 10G 2G27G29G26G 4G10G24G17G 8G13
  20900349.5434  -21256245.18948 -16558385.18847                  20900344.4534
      2382.1484
  22616596.1104  -11360218.54648  -8847655.67246                  22616594.0184
      -296.1434
  22193326.6514   -9347020.47947  -7711633.09845                  22193323.9434
      2722.9004
  23529519.9894   -2578822.07846  -2328002.58643                  23529517.3124
      3585.8454
  20668586.3384  -24302796.00448 -18931313.58346                  20668584.0234
       380.4004
  22579969.7294   -9477144.66247  -8713060.43945                  22579966.9374
       869.4194
  21868699.8924  -15420978.76048 -13340420.62346                  21868696.4644
      -793.5944
  23106353.9624  -13514240.46747 -10516616.70945                  23106352.1054
     -3020.6594
  22204497.8524  -15947795.11448 -12418146.07046                  22204495.4414
      1805.6204
  24387226.5274   -6894812.07746  -5366502.46043                  24387225.7894
     -3176.0744
 06  6 27 22 59  0.0000000  0 10G 2G27G29G26G 4G10G24G17G 8G13
  20886777.2614  -21327568.73848 -16613961.97347                  20886771.7594
      2373.1254
  22618327.8424  -11351117.65948  -8840564.07146                  22618326.0394
      -310.3034
  22177821.9564   -9428499.41047  -7775123.17445                  22177819.2564
      2709.3604
  23509077.2754   -2686252.61746  -2411714.69443                  23509074.6304
      3576.5194
  20666451.4754  -24314018.79748 -18940058.65146                  20666448.2574
       368.0574
  22575009.1394   -9503213.26547  -8733373.65345                  22575006.6834
       868.9164
  21873266.5144  -15396982.70448 -13321722.45046                  21873263.3264
      -805.8454
  23123603.0464  -13423594.07347 -10445983.24146                  23123600.7914
     -3022.0464
  22194220.1564  -16001805.59548 -12460232.17346                  22194217.8514
      1795.3084
  24405358.9294   -6799526.43046  -5292254.09543                  24405357.7344
     -3175.8844
